Wetterdaten: Donnerstag, 09.02.2023
Datum Zeit Temp. Aussen Temp. o. S. Temp +5cm Feuchte Auss Luftdruck Regen Sonnenschein Regendauer Solar Windben Empfang
09.02.2023 00:00 0,4 C -0,6 C -3,9 C 68 % 1033,7 hPa 0,0 l/m 0 min 0 min 0 W/m 12,9 km/h (3 Bft) 97,87 %
09.02.2023 00:02 0,3 C -0,6 C -3,9 C 68 % 1033,6 hPa 0,0 l/m 0 min 0 min 0 W/m 6,4 km/h (2 Bft) 95,12 %
09.02.2023 00:04 0,3 C -0,6 C -3,9 C 68 % 1033,7 hPa 0,0 l/m 0 min 0 min 0 W/m 12,9 km/h (3 Bft) 100,00 %
09.02.2023 00:07 0,3 C -0,6 C -3,9 C 68 % 1033,6 hPa 0,0 l/m 0 min 0 min 0 W/m 6,4 km/h (2 Bft) 100,00 %
09.02.2023 00:08 0,3 C -0,6 C -3,9 C 68 % 1033,6 hPa 0,0 l/m 0 min 0 min 0 W/m 9,7 km/h (2 Bft) 91,67 %
09.02.2023 00:12 0,3 C -0,6 C -3,9 C 69 % 1033,6 hPa 0,0 l/m 0 min 0 min 0 W/m 12,9 km/h (3 Bft) 100,00 %
09.02.2023 00:14 0,3 C -0,6 C -3,9 C 69 % 1033,6 hPa 0,0 l/m 0 min 0 min 0 W/m 12,9 km/h (3 Bft) 100,00 %
09.02.2023 00:19 0,2 C -0,6 C -3,9 C 69 % 1033,4 hPa 0,0 l/m 0 min 0 min 0 W/m 12,9 km/h (3 Bft) 100,00 %
09.02.2023 00:20 0,2 C -0,6 C -3,9 C 69 % 1033,4 hPa 0,0 l/m 0 min 0 min 0 W/m 6,4 km/h (2 Bft) 100,00 %
09.02.2023 00:22 0,2 C -0,6 C -3,9 C 69 % 1033,5 hPa 0,0 l/m 0 min 0 min 0 W/m 12,9 km/h (3 Bft) 100,00 %
09.02.2023 00:24 0,2 C -0,6 C -4,4 C 69 % 1033,5 hPa 0,0 l/m 0 min 0 min 0 W/m 19,3 km/h (3 Bft) 100,00 %
09.02.2023 00:26 0,2 C -0,6 C -3,9 C 69 % 1033,4 hPa 0,0 l/m 0 min 0 min 0 W/m 16,1 km/h (3 Bft) 100,00 %
09.02.2023 00:28 0,2 C -0,6 C -3,9 C 69 % 1033,4 hPa 0,0 l/m 0 min 0 min 0 W/m 19,3 km/h (3 Bft) 100,00 %
09.02.2023 00:30 0,2 C -0,6 C -3,9 C 69 % 1033,4 hPa 0,0 l/m 0 min 0 min 0 W/m 12,9 km/h (3 Bft) 100,00 %
09.02.2023 00:32 0,2 C -0,6 C -3,9 C 69 % 1033,3 hPa 0,0 l/m 0 min 0 min 0 W/m 16,1 km/h (3 Bft) 97,83 %
09.02.2023 00:34 0,2 C -0,6 C -3,9 C 69 % 1033,3 hPa 0,0 l/m 0 min 0 min 0 W/m 12,9 km/h (3 Bft) 97,87 %
09.02.2023 00:36 0,2 C -0,6 C -3,9 C 69 % 1033,4 hPa 0,0 l/m 0 min 0 min 0 W/m 16,1 km/h (3 Bft) 100,00 %
09.02.2023 00:38 0,2 C -0,6 C -3,9 C 69 % 1033,4 hPa 0,0 l/m 0 min 0 min 0 W/m 12,9 km/h (3 Bft) 100,00 %
09.02.2023 00:40 0,2 C -0,6 C -3,9 C 69 % 1033,4 hPa 0,0 l/m 0 min 0 min 0 W/m 12,9 km/h (3 Bft) 100,00 %
09.02.2023 00:42 0,2 C -0,6 C -3,9 C 69 % 1033,4 hPa 0,0 l/m 0 min 0 min 0 W/m 16,1 km/h (3 Bft) 97,87 %
09.02.2023 00:44 0,2 C -0,6 C -3,9 C 69 % 1033,5 hPa 0,0 l/m 0 min 0 min 0 W/m 16,1 km/h (3 Bft) 97,87 %
09.02.2023 00:46 0,2 C -0,6 C -3,9 C 69 % 1033,4 hPa 0,0 l/m 0 min 0 min 0 W/m 12,9 km/h (3 Bft) 100,00 %
09.02.2023 00:48 0,2 C -0,6 C -3,9 C 69 % 1033,4 hPa 0,0 l/m 0 min 0 min 0 W/m 12,9 km/h (3 Bft) 97,87 %
09.02.2023 00:50 0,2 C -0,6 C -3,9 C 69 % 1033,3 hPa 0,0 l/m 0 min 0 min 0 W/m 16,1 km/h (3 Bft) 95,74 %
09.02.2023 00:52 0,2 C -0,6 C -4,4 C 69 % 1033,3 hPa 0,0 l/m 0 min 0 min 0 W/m 9,7 km/h (2 Bft) 95,74 %
09.02.2023 00:54 0,2 C -0,6 C -4,4 C 69 % 1033,3 hPa 0,0 l/m 0 min 0 min 0 W/m 16,1 km/h (3 Bft) 97,87 %
09.02.2023 00:56 0,2 C -0,6 C -4,4 C 69 % 1033,3 hPa 0,0 l/m 0 min 0 min 0 W/m 16,1 km/h (3 Bft) 93,62 %
09.02.2023 00:58 0,2 C -0,6 C -4,4 C 69 % 1033,2 hPa 0,0 l/m 0 min 0 min 0 W/m 12,9 km/h (3 Bft) 97,87 %
09.02.2023 01:00 0,2 C -0,6 C -4,4 C 69 % 1033,2 hPa 0,0 l/m 0 min 0 min 0 W/m 19,3 km/h (3 Bft) 97,83 %
09.02.2023 01:02 0,1 C -0,6 C -4,4 C 69 % 1033,2 hPa 0,0 l/m 0 min 0 min 0 W/m 12,9 km/h (3 Bft) 95,74 %
09.02.2023 01:04 0,1 C -0,6 C -4,4 C 69 % 1033,2 hPa 0,0 l/m 0 min 0 min 0 W/m 19,3 km/h (3 Bft) 97,87 %
09.02.2023 01:06 0,1 C -0,6 C -4,4 C 69 % 1033,2 hPa 0,0 l/m 0 min 0 min 0 W/m 16,1 km/h (3 Bft) 97,87 %
09.02.2023 01:08 0,1 C -0,6 C -4,4 C 69 % 1033,2 hPa 0,0 l/m 0 min 0 min 0 W/m 16,1 km/h (3 Bft) 95,74 %
09.02.2023 01:10 0,1 C -0,6 C -4,4 C 69 % 1033,2 hPa 0,0 l/m 0 min 0 min 0 W/m 16,1 km/h (3 Bft) 95,74 %
09.02.2023 01:12 0,1 C -0,6 C -4,4 C 69 % 1033,2 hPa 0,0 l/m 0 min 0 min 0 W/m 16,1 km/h (3 Bft) 97,87 %
09.02.2023 01:14 0,1 C -0,6 C -4,4 C 69 % 1033,1 hPa 0,0 l/m 0 min 0 min 0 W/m 12,9 km/h (3 Bft) 97,83 %
09.02.2023 01:16 0,1 C -0,6 C -4,4 C 69 % 1033,1 hPa 0,0 l/m 0 min 0 min 0 W/m 12,9 km/h (3 Bft) 94,00 %
09.02.2023 01:18 0,1 C -0,6 C -4,4 C 69 % 1033,2 hPa 0,0 l/m 0 min 0 min 0 W/m 12,9 km/h (3 Bft) 97,14 %
09.02.2023 01:20 0,1 C -0,6 C -4,4 C 69 % 1033,2 hPa 0,0 l/m 0 min 0 min 0 W/m 9,7 km/h (2 Bft) 94,34 %
09.02.2023 01:22 0,1 C -1,1 C -4,4 C 69 % 1033,2 hPa 0,0 l/m 0 min 0 min 0 W/m 6,4 km/h (2 Bft) 96,00 %
09.02.2023 01:24 0,1 C -1,1 C -4,4 C 69 % 1033,1 hPa 0,0 l/m 0 min 0 min 0 W/m 16,1 km/h (3 Bft) 95,92 %
09.02.2023 01:26 0,0 C -1,1 C -4,4 C 69 % 1033,2 hPa 0,0 l/m 0 min 0 min 0 W/m 6,4 km/h (2 Bft) 97,14 %
09.02.2023 01:28 0,0 C -1,1 C -4,4 C 69 % 1033,2 hPa 0,0 l/m 0 min 0 min 0 W/m 12,9 km/h (3 Bft) 95,74 %
09.02.2023 01:30 0,0 C -1,1 C -4,4 C 69 % 1033,1 hPa 0,0 l/m 0 min 0 min 0 W/m 12,9 km/h (3 Bft) 98,11 %
09.02.2023 01:32 -0,1 C -1,1 C -4,4 C 69 % 1033,2 hPa 0,0 l/m 0 min 0 min 0 W/m 9,7 km/h (2 Bft) 98,00 %
09.02.2023 01:34 -0,1 C -1,1 C -4,4 C 70 % 1033,2 hPa 0,0 l/m 0 min 0 min 0 W/m 12,9 km/h (3 Bft) 96,00 %
09.02.2023 01:36 -0,1 C -1,1 C -4,4 C 69 % 1033,2 hPa 0,0 l/m 0 min 0 min 0 W/m 12,9 km/h (3 Bft) 94,29 %
09.02.2023 01:38 -0,1 C -1,1 C -4,4 C 69 % 1033,1 hPa 0,0 l/m 0 min 0 min 0 W/m 9,7 km/h (2 Bft) 96,23 %
09.02.2023 01:40 -0,1 C -1,1 C -4,4 C 70 % 1033,1 hPa 0,0 l/m 0 min 0 min 0 W/m 12,9 km/h (3 Bft) 97,96 %
09.02.2023 01:42 -0,2 C -1,1 C -4,4 C 70 % 1033,1 hPa 0,0 l/m 0 min 0 min 0 W/m 12,9 km/h (3 Bft) 94,00 %
09.02.2023 01:44 -0,2 C -1,1 C -4,4 C 70 % 1033,1 hPa 0,0 l/m 0 min 0 min 0 W/m 16,1 km/h (3 Bft) 95,74 %
09.02.2023 01:46 -0,2 C -1,1 C -4,4 C 70 % 1033,1 hPa 0,0 l/m 0 min 0 min 0 W/m 9,7 km/h (2 Bft) 100,00 %
09.02.2023 01:48 -0,2 C -1,1 C -4,4 C 70 % 1033,1 hPa 0,0 l/m 0 min 0 min 0 W/m 12,9 km/h (3 Bft) 100,00 %
09.02.2023 01:50 -0,2 C -1,1 C -4,4 C 70 % 1033,2 hPa 0,0 l/m 0 min 0 min 0 W/m 6,4 km/h (2 Bft) 100,00 %
09.02.2023 01:52 -0,3 C -1,1 C -4,4 C 70 % 1033,2 hPa 0,0 l/m 0 min 0 min 0 W/m 9,7 km/h (2 Bft) 97,83 %
09.02.2023 01:54 -0,3 C -1,1 C -4,4 C 70 % 1033,2 hPa 0,0 l/m 0 min 0 min 0 W/m 6,4 km/h (2 Bft) 100,00 %
09.02.2023 01:56 -0,3 C -1,1 C -5,0 C 70 % 1033,2 hPa 0,0 l/m 0 min 0 min 0 W/m 9,7 km/h (2 Bft) 97,87 %
09.02.2023 01:58 -0,3 C -1,1 C -5,0 C 71 % 1033,1 hPa 0,0 l/m 0 min 0 min 0 W/m 16,1 km/h (3 Bft) 56,52 %
09.02.2023 02:00 -0,4 C -1,1 C -5,0 C 71 % 1033,1 hPa 0,0 l/m 0 min 0 min 0 W/m 9,7 km/h (2 Bft) 97,87 %
09.02.2023 02:02 -0,4 C -1,1 C -5,0 C 71 % 1033,1 hPa 0,0 l/m 0 min 0 min 0 W/m 12,9 km/h (3 Bft) 95,74 %
09.02.2023 02:04 -0,4 C -1,1 C -5,0 C 71 % 1033,1 hPa 0,0 l/m 0 min 0 min 0 W/m 12,9 km/h (3 Bft) 95,74 %
09.02.2023 02:06 -0,4 C -1,1 C -5,0 C 71 % 1033,2 hPa 0,0 l/m 0 min 0 min 0 W/m 12,9 km/h (3 Bft) 97,83 %
09.02.2023 02:08 -0,4 C -1,1 C -5,0 C 71 % 1033,2 hPa 0,0 l/m 0 min 0 min 0 W/m 12,9 km/h (3 Bft) 97,87 %
09.02.2023 02:10 -0,4 C -1,1 C -5,0 C 71 % 1033,2 hPa 0,0 l/m 0 min 0 min 0 W/m 6,4 km/h (2 Bft) 97,87 %
09.02.2023 02:14 -0,5 C -1,7 C -5,0 C 71 % 1033,3 hPa 0,0 l/m 0 min 0 min 0 W/m 6,4 km/h (2 Bft) 100,00 %
09.02.2023 02:16 -0,5 C -1,7 C -5,0 C 71 % 1033,3 hPa 0,0 l/m 0 min 0 min 0 W/m 6,4 km/h (2 Bft) 95,92 %
09.02.2023 02:18 -0,6 C -1,7 C -5,0 C 71 % 1033,2 hPa 0,0 l/m 0 min 0 min 0 W/m 6,4 km/h (2 Bft) 97,83 %
09.02.2023 02:20 -0,6 C -1,7 C -5,0 C 71 % 1033,3 hPa 0,0 l/m 0 min 0 min 0 W/m 12,9 km/h (3 Bft) 94,44 %
09.02.2023 02:22 -0,6 C -1,7 C -5,0 C 72 % 1033,3 hPa 0,0 l/m 0 min 0 min 0 W/m 6,4 km/h (2 Bft) 93,62 %
09.02.2023 02:24 -0,6 C -1,7 C -5,0 C 72 % 1033,2 hPa 0,0 l/m 0 min 0 min 0 W/m 6,4 km/h (2 Bft) 95,74 %
09.02.2023 02:26 -0,6 C -1,7 C -5,0 C 72 % 1033,2 hPa 0,0 l/m 0 min 0 min 0 W/m 6,4 km/h (2 Bft) 95,74 %
09.02.2023 02:28 -0,7 C -1,7 C -5,0 C 72 % 1033,1 hPa 0,0 l/m 0 min 0 min 0 W/m 6,4 km/h (2 Bft) 97,83 %
09.02.2023 02:30 -0,7 C -1,7 C -5,0 C 72 % 1033,1 hPa 0,0 l/m 0 min 0 min 0 W/m 6,4 km/h (2 Bft) 97,87 %
09.02.2023 02:32 -0,7 C -1,7 C -5,0 C 72 % 1033,1 hPa 0,0 l/m 0 min 0 min 0 W/m 12,9 km/h (3 Bft) 97,37 %
09.02.2023 02:34 -0,7 C -1,7 C -5,0 C 72 % 1033,1 hPa 0,0 l/m 0 min 0 min 0 W/m 12,9 km/h (3 Bft) 95,74 %
09.02.2023 02:36 -0,7 C -1,7 C -5,0 C 72 % 1033,1 hPa 0,0 l/m 0 min 0 min 0 W/m 12,9 km/h (3 Bft) 95,74 %
09.02.2023 02:38 -0,8 C -1,7 C -5,0 C 72 % 1033,2 hPa 0,0 l/m 0 min 0 min 0 W/m 12,9 km/h (3 Bft) 93,62 %
09.02.2023 02:40 -0,8 C -1,7 C -5,0 C 72 % 1033,2 hPa 0,0 l/m 0 min 0 min 0 W/m 9,7 km/h (2 Bft) 95,74 %
09.02.2023 02:42 -0,8 C -1,7 C -5,0 C 72 % 1033,2 hPa 0,0 l/m 0 min 0 min 0 W/m 12,9 km/h (3 Bft) 95,65 %
09.02.2023 02:44 -0,8 C -1,7 C -5,0 C 73 % 1033,2 hPa 0,0 l/m 0 min 0 min 0 W/m 6,4 km/h (2 Bft) 97,87 %
09.02.2023 02:46 -0,8 C -1,7 C -5,0 C 73 % 1033,2 hPa 0,0 l/m 0 min 0 min 0 W/m 6,4 km/h (2 Bft) 95,74 %
09.02.2023 02:48 -0,8 C -1,7 C -5,0 C 73 % 1033,2 hPa 0,0 l/m 0 min 0 min 0 W/m 6,4 km/h (2 Bft) 97,87 %
09.02.2023 02:50 -0,9 C -1,7 C -5,0 C 73 % 1033,2 hPa 0,0 l/m 0 min 0 min 0 W/m 12,9 km/h (3 Bft) 95,74 %
09.02.2023 02:52 -0,9 C -1,7 C -5,0 C 73 % 1033,1 hPa 0,0 l/m 0 min 0 min 0 W/m 12,9 km/h (3 Bft) 95,74 %
09.02.2023 02:54 -0,9 C -1,7 C -5,0 C 73 % 1033,2 hPa 0,0 l/m 0 min 0 min 0 W/m 12,9 km/h (3 Bft) 95,65 %
09.02.2023 02:56 -0,9 C -1,7 C -5,0 C 73 % 1033,2 hPa 0,0 l/m 0 min 0 min 0 W/m 6,4 km/h (2 Bft) 95,74 %
09.02.2023 02:58 -0,9 C -1,7 C -5,0 C 73 % 1033,1 hPa 0,0 l/m 0 min 0 min 0 W/m 6,4 km/h (2 Bft) 97,87 %
09.02.2023 03:00 -0,9 C -1,7 C -5,0 C 73 % 1033,1 hPa 0,0 l/m 0 min 0 min 0 W/m 6,4 km/h (2 Bft) 95,74 %
09.02.2023 03:02 -0,9 C -1,7 C -5,0 C 73 % 1033,2 hPa 0,0 l/m 0 min 0 min 0 W/m 6,4 km/h (2 Bft) 93,62 %
09.02.2023 03:04 -1,0 C -1,7 C -5,0 C 73 % 1033,1 hPa 0,0 l/m 0 min 0 min 0 W/m 6,4 km/h (2 Bft) 95,74 %
09.02.2023 03:06 -1,0 C -1,7 C -5,0 C 73 % 1033,1 hPa 0,0 l/m 0 min 0 min 0 W/m 6,4 km/h (2 Bft) 93,10 %
09.02.2023 03:08 -1,0 C -1,7 C -5,0 C 73 % 1033,1 hPa 0,0 l/m 0 min 0 min 0 W/m 6,4 km/h (2 Bft) 97,14 %
09.02.2023 03:10 -1,0 C -1,7 C -5,6 C 73 % 1033,1 hPa 0,0 l/m 0 min 0 min 0 W/m 6,4 km/h (2 Bft) 95,74 %
09.02.2023 03:12 -1,1 C -1,7 C -5,6 C 73 % 1033,1 hPa 0,0 l/m 0 min 0 min 0 W/m 9,7 km/h (2 Bft) 93,62 %
09.02.2023 03:14 -1,1 C -1,7 C -5,6 C 73 % 1033,1 hPa 0,0 l/m 0 min 0 min 0 W/m 6,4 km/h (2 Bft) 93,62 %
09.02.2023 03:16 -1,1 C -1,7 C -5,6 C 73 % 1033,1 hPa 0,0 l/m 0 min 0 min 0 W/m 6,4 km/h (2 Bft) 95,74 %
09.02.2023 03:18 -1,1 C -2,2 C -5,6 C 73 % 1033,1 hPa 0,0 l/m 0 min 0 min 0 W/m 6,4 km/h (2 Bft) 93,62 %
09.02.2023 03:20 -1,1 C -2,2 C -5,6 C 74 % 1033,2 hPa 0,0 l/m 0 min 0 min 0 W/m 6,4 km/h (2 Bft) 93,48 %
09.02.2023 03:22 -1,1 C -2,2 C -5,6 C 74 % 1033,2 hPa 0,0 l/m 0 min 0 min 0 W/m 9,7 km/h (2 Bft) 95,74 %
09.02.2023 03:24 -1,1 C -2,2 C -5,6 C 74 % 1033,1 hPa 0,0 l/m 0 min 0 min 0 W/m 6,4 km/h (2 Bft) 95,74 %
09.02.2023 03:26 -1,1 C -2,2 C -5,6 C 74 % 1033,1 hPa 0,0 l/m 0 min 0 min 0 W/m 6,4 km/h (2 Bft) 95,74 %
09.02.2023 03:28 -1,2 C -2,2 C -5,6 C 74 % 1033,2 hPa 0,0 l/m 0 min 0 min 0 W/m 6,4 km/h (2 Bft) 97,87 %
09.02.2023 03:30 -1,2 C -2,2 C -5,6 C 74 % 1033,2 hPa 0,0 l/m 0 min 0 min 0 W/m 12,9 km/h (3 Bft) 97,87 %
09.02.2023 03:32 -1,2 C -2,2 C -5,6 C 74 % 1033,1 hPa 0,0 l/m 0 min 0 min 0 W/m 6,4 km/h (2 Bft) 97,83 %
09.02.2023 03:34 -1,2 C -2,2 C -5,6 C 74 % 1033,2 hPa 0,0 l/m 0 min 0 min 0 W/m 6,4 km/h (2 Bft) 95,74 %
09.02.2023 03:36 -1,2 C -2,2 C -5,6 C 74 % 1033,2 hPa 0,0 l/m 0 min 0 min 0 W/m 12,9 km/h (3 Bft) 97,87 %
09.02.2023 03:38 -1,2 C -2,2 C -5,6 C 74 % 1033,2 hPa 0,0 l/m 0 min 0 min 0 W/m 6,4 km/h (2 Bft) 100,00 %
09.02.2023 03:40 -1,2 C -2,2 C -5,6 C 74 % 1033,2 hPa 0,0 l/m 0 min 0 min 0 W/m 6,4 km/h (2 Bft) 100,00 %
09.02.2023 03:42 -1,2 C -2,2 C -5,6 C 74 % 1033,2 hPa 0,0 l/m 0 min 0 min 0 W/m 12,9 km/h (3 Bft) 97,87 %
09.02.2023 03:44 -1,2 C -2,2 C -5,6 C 74 % 1033,3 hPa 0,0 l/m 0 min 0 min 0 W/m 6,4 km/h (2 Bft) 100,00 %
09.02.2023 03:46 -1,2 C -2,2 C -5,6 C 74 % 1033,3 hPa 0,0 l/m 0 min 0 min 0 W/m 12,9 km/h (3 Bft) 100,00 %
09.02.2023 03:48 -1,3 C -2,2 C -5,6 C 74 % 1033,2 hPa 0,0 l/m 0 min 0 min 0 W/m 6,4 km/h (2 Bft) 100,00 %
09.02.2023 03:50 -1,3 C -2,2 C -5,6 C 74 % 1033,2 hPa 0,0 l/m 0 min 0 min 0 W/m 6,4 km/h (2 Bft) 100,00 %
09.02.2023 03:52 -1,3 C -2,2 C -5,6 C 74 % 1033,1 hPa 0,0 l/m 0 min 0 min 0 W/m 3,2 km/h (1 Bft) 100,00 %
09.02.2023 03:54 -1,3 C -2,2 C -5,6 C 74 % 1033,1 hPa 0,0 l/m 0 min 0 min 0 W/m 6,4 km/h (2 Bft) 51,22 %
09.02.2023 03:56 -1,3 C -2,2 C -5,6 C 74 % 1033,1 hPa 0,0 l/m 0 min 0 min 0 W/m 3,2 km/h (1 Bft) 100,00 %
09.02.2023 03:58 -1,3 C -2,2 C -5,6 C 74 % 1033,1 hPa 0,0 l/m 0 min 0 min 0 W/m 6,4 km/h (2 Bft) 100,00 %
09.02.2023 04:00 -1,4 C -2,2 C -5,6 C 75 % 1033,1 hPa 0,0 l/m 0 min 0 min 0 W/m 6,4 km/h (2 Bft) 100,00 %
09.02.2023 04:02 -1,4 C -2,2 C -5,6 C 75 % 1033,1 hPa 0,0 l/m 0 min 0 min 0 W/m 12,9 km/h (3 Bft) 97,87 %
09.02.2023 04:04 -1,4 C -2,2 C -5,6 C 75 % 1033,1 hPa 0,0 l/m 0 min 0 min 0 W/m 6,4 km/h (2 Bft) 100,00 %
09.02.2023 04:06 -1,4 C -2,2 C -5,6 C 75 % 1033,2 hPa 0,0 l/m 0 min 0 min 0 W/m 16,1 km/h (3 Bft) 100,00 %
09.02.2023 04:08 -1,4 C -2,2 C -5,6 C 75 % 1033,1 hPa 0,0 l/m 0 min 0 min 0 W/m 12,9 km/h (3 Bft) 100,00 %
09.02.2023 04:10 -1,4 C -2,2 C -5,6 C 75 % 1033,0 hPa 0,0 l/m 0 min 0 min 0 W/m 12,9 km/h (3 Bft) 100,00 %
09.02.2023 04:12 -1,4 C -2,2 C -5,6 C 75 % 1033,0 hPa 0,0 l/m 0 min 0 min 0 W/m 12,9 km/h (3 Bft) 100,00 %
09.02.2023 04:14 -1,4 C -2,2 C -5,6 C 75 % 1033,0 hPa 0,0 l/m 0 min 0 min 0 W/m 12,9 km/h (3 Bft) 93,62 %
09.02.2023 04:16 -1,5 C -2,2 C -5,6 C 75 % 1033,1 hPa 0,0 l/m 0 min 0 min 0 W/m 12,9 km/h (3 Bft) 100,00 %
09.02.2023 04:18 -1,5 C -2,2 C -5,6 C 75 % 1033,1 hPa 0,0 l/m 0 min 0 min 0 W/m 6,4 km/h (2 Bft) 100,00 %
09.02.2023 04:20 -1,5 C -2,2 C -5,6 C 76 % 1033,1 hPa 0,0 l/m 0 min 0 min 0 W/m 6,4 km/h (2 Bft) 95,74 %
09.02.2023 04:22 -1,5 C -2,2 C -5,6 C 76 % 1033,1 hPa 0,0 l/m 0 min 0 min 0 W/m 12,9 km/h (3 Bft) 100,00 %
09.02.2023 04:24 -1,5 C -2,2 C -5,6 C 76 % 1033,1 hPa 0,0 l/m 0 min 0 min 0 W/m 6,4 km/h (2 Bft) 100,00 %
09.02.2023 04:26 -1,6 C -2,2 C -5,6 C 76 % 1033,1 hPa 0,0 l/m 0 min 0 min 0 W/m 12,9 km/h (3 Bft) 100,00 %
09.02.2023 04:28 -1,6 C -2,2 C -5,6 C 76 % 1033,0 hPa 0,0 l/m 0 min 0 min 0 W/m 12,9 km/h (3 Bft) 100,00 %
09.02.2023 04:30 -1,6 C -2,2 C -5,6 C 76 % 1033,0 hPa 0,0 l/m 0 min 0 min 0 W/m 6,4 km/h (2 Bft) 100,00 %
09.02.2023 04:32 -1,6 C -2,2 C -5,6 C 76 % 1033,0 hPa 0,0 l/m 0 min 0 min 0 W/m 6,4 km/h (2 Bft) 100,00 %
09.02.2023 04:34 -1,6 C -2,2 C -5,6 C 76 % 1033,0 hPa 0,0 l/m 0 min 0 min 0 W/m 9,7 km/h (2 Bft) 100,00 %
09.02.2023 04:36 -1,6 C -2,2 C -5,6 C 76 % 1033,1 hPa 0,0 l/m 0 min 0 min 0 W/m 16,1 km/h (3 Bft) 100,00 %
09.02.2023 04:38 -1,6 C -2,2 C -5,6 C 76 % 1033,0 hPa 0,0 l/m 0 min 0 min 0 W/m 12,9 km/h (3 Bft) 97,83 %
09.02.2023 04:40 -1,6 C -2,2 C -5,6 C 76 % 1033,0 hPa 0,0 l/m 0 min 0 min 0 W/m 12,9 km/h (3 Bft) 97,87 %
09.02.2023 04:42 -1,6 C -2,2 C -5,6 C 76 % 1033,0 hPa 0,0 l/m 0 min 0 min 0 W/m 12,9 km/h (3 Bft) 97,87 %
09.02.2023 04:44 -1,6 C -2,2 C -5,6 C 77 % 1032,9 hPa 0,0 l/m 0 min 0 min 0 W/m 12,9 km/h (3 Bft) 97,87 %
09.02.2023 04:46 -1,6 C -2,2 C -5,6 C 77 % 1032,9 hPa 0,0 l/m 0 min 0 min 0 W/m 16,1 km/h (3 Bft) 95,74 %
09.02.2023 04:48 -1,6 C -2,2 C -5,6 C 77 % 1032,9 hPa 0,0 l/m 0 min 0 min 0 W/m 12,9 km/h (3 Bft) 93,62 %
09.02.2023 04:50 -1,6 C -2,2 C -5,6 C 77 % 1032,9 hPa 0,0 l/m 0 min 0 min 0 W/m 16,1 km/h (3 Bft) 95,65 %
09.02.2023 04:52 -1,6 C -2,2 C -5,6 C 77 % 1032,8 hPa 0,0 l/m 0 min 0 min 0 W/m 12,9 km/h (3 Bft) 97,87 %
09.02.2023 04:54 -1,6 C -2,2 C -5,6 C 77 % 1032,8 hPa 0,0 l/m 0 min 0 min 0 W/m 12,9 km/h (3 Bft) 97,87 %
09.02.2023 04:56 -1,7 C -2,2 C -5,6 C 77 % 1032,8 hPa 0,0 l/m 0 min 0 min 0 W/m 9,7 km/h (2 Bft) 95,74 %
09.02.2023 04:58 -1,7 C -2,2 C -5,6 C 77 % 1032,8 hPa 0,0 l/m 0 min 0 min 0 W/m 12,9 km/h (3 Bft) 95,74 %
09.02.2023 05:00 -1,7 C -2,8 C -5,6 C 77 % 1032,7 hPa 0,0 l/m 0 min 0 min 0 W/m 6,4 km/h (2 Bft) 97,87 %
09.02.2023 05:02 -1,7 C -2,8 C -5,6 C 77 % 1032,7 hPa 0,0 l/m 0 min 0 min 0 W/m 16,1 km/h (3 Bft) 97,87 %
09.02.2023 05:04 -1,7 C -2,8 C -6,1 C 77 % 1032,7 hPa 0,0 l/m 0 min 0 min 0 W/m 6,4 km/h (2 Bft) 95,65 %
09.02.2023 05:06 -1,7 C -2,8 C -6,1 C 77 % 1032,7 hPa 0,0 l/m 0 min 0 min 0 W/m 16,1 km/h (3 Bft) 97,87 %
09.02.2023 05:08 -1,7 C -2,8 C -6,1 C 77 % 1032,7 hPa 0,0 l/m 0 min 0 min 0 W/m 6,4 km/h (2 Bft) 95,74 %
09.02.2023 05:10 -1,7 C -2,8 C -6,1 C 77 % 1032,7 hPa 0,0 l/m 0 min 0 min 0 W/m 6,4 km/h (2 Bft) 97,87 %
09.02.2023 05:12 -1,8 C -2,8 C -6,1 C 77 % 1032,7 hPa 0,0 l/m 0 min 0 min 0 W/m 12,9 km/h (3 Bft) 95,74 %
09.02.2023 05:14 -1,8 C -2,8 C -6,1 C 77 % 1032,7 hPa 0,0 l/m 0 min 0 min 0 W/m 12,9 km/h (3 Bft) 97,83 %
09.02.2023 05:16 -1,8 C -2,8 C -6,1 C 78 % 1032,7 hPa 0,0 l/m 0 min 0 min 0 W/m 12,9 km/h (3 Bft) 95,74 %
09.02.2023 05:18 -1,8 C -2,8 C -6,1 C 78 % 1032,6 hPa 0,0 l/m 0 min 0 min 0 W/m 12,9 km/h (3 Bft) 97,87 %
09.02.2023 05:20 -1,8 C -2,8 C -6,1 C 78 % 1032,6 hPa 0,0 l/m 0 min 0 min 0 W/m 12,9 km/h (3 Bft) 95,74 %
09.02.2023 05:22 -1,8 C -2,8 C -6,1 C 78 % 1032,6 hPa 0,0 l/m 0 min 0 min 0 W/m 16,1 km/h (3 Bft) 97,87 %
09.02.2023 05:24 -1,9 C -2,8 C -6,1 C 78 % 1032,6 hPa 0,0 l/m 0 min 0 min 0 W/m 6,4 km/h (2 Bft) 97,87 %
09.02.2023 05:26 -1,9 C -2,8 C -6,1 C 78 % 1032,6 hPa 0,0 l/m 0 min 0 min 0 W/m 6,4 km/h (2 Bft) 97,87 %
09.02.2023 05:28 -1,9 C -2,8 C -6,1 C 78 % 1032,5 hPa 0,0 l/m 0 min 0 min 0 W/m 16,1 km/h (3 Bft) 97,83 %
09.02.2023 05:30 -1,9 C -2,8 C -6,1 C 79 % 1032,5 hPa 0,0 l/m 0 min 0 min 0 W/m 9,7 km/h (2 Bft) 95,74 %
09.02.2023 05:32 -1,9 C -2,8 C -6,1 C 79 % 1032,5 hPa 0,0 l/m 0 min 0 min 0 W/m 6,4 km/h (2 Bft) 93,62 %
09.02.2023 05:34 -1,9 C -2,8 C -6,1 C 79 % 1032,5 hPa 0,0 l/m 0 min 0 min 0 W/m 9,7 km/h (2 Bft) 95,74 %
09.02.2023 05:36 -1,9 C -2,8 C -6,1 C 79 % 1032,4 hPa 0,0 l/m 0 min 0 min 0 W/m 16,1 km/h (3 Bft) 95,74 %
09.02.2023 05:38 -1,9 C -2,8 C -6,1 C 79 % 1032,5 hPa 0,0 l/m 0 min 0 min 0 W/m 12,9 km/h (3 Bft) 95,74 %
09.02.2023 05:40 -1,9 C -2,8 C -6,1 C 79 % 1032,3 hPa 0,0 l/m 0 min 0 min 0 W/m 12,9 km/h (3 Bft) 95,65 %
09.02.2023 05:42 -1,9 C -2,8 C -6,1 C 79 % 1032,4 hPa 0,0 l/m 0 min 0 min 0 W/m 16,1 km/h (3 Bft) 93,62 %
09.02.2023 05:44 -1,9 C -2,8 C -6,1 C 79 % 1032,4 hPa 0,0 l/m 0 min 0 min 0 W/m 6,4 km/h (2 Bft) 95,74 %
09.02.2023 05:46 -1,9 C -2,8 C -6,1 C 79 % 1032,4 hPa 0,0 l/m 0 min 0 min 0 W/m 12,9 km/h (3 Bft) 97,87 %
09.02.2023 05:48 -2,0 C -2,8 C -6,1 C 79 % 1032,4 hPa 0,0 l/m 0 min 0 min 0 W/m 12,9 km/h (3 Bft) 95,74 %
09.02.2023 05:50 -2,0 C -2,8 C -6,1 C 79 % 1032,4 hPa 0,0 l/m 0 min 0 min 0 W/m 12,9 km/h (3 Bft) 97,87 %
09.02.2023 05:52 -2,0 C -2,8 C -6,1 C 79 % 1032,4 hPa 0,0 l/m 0 min 0 min 0 W/m 12,9 km/h (3 Bft) 97,83 %
09.02.2023 05:54 -2,0 C -2,8 C -6,1 C 80 % 1032,4 hPa 0,0 l/m 0 min 0 min 0 W/m 9,7 km/h (2 Bft) 97,87 %
09.02.2023 05:56 -2,0 C -2,8 C -6,1 C 80 % 1032,3 hPa 0,0 l/m 0 min 0 min 0 W/m 12,9 km/h (3 Bft) 97,87 %
09.02.2023 05:58 -2,1 C -2,8 C -6,1 C 80 % 1032,4 hPa 0,0 l/m 0 min 0 min 0 W/m 6,4 km/h (2 Bft) 97,87 %
09.02.2023 06:00 -2,1 C -2,8 C -6,1 C 80 % 1032,4 hPa 0,0 l/m 0 min 0 min 0 W/m 12,9 km/h (3 Bft) 97,87 %
09.02.2023 06:02 -2,1 C -2,8 C -6,1 C 80 % 1032,3 hPa 0,0 l/m 0 min 0 min 0 W/m 12,9 km/h (3 Bft) 95,74 %
09.02.2023 06:04 -2,1 C -2,8 C -6,1 C 80 % 1032,4 hPa 0,0 l/m 0 min 0 min 0 W/m 12,9 km/h (3 Bft) 97,92 %
09.02.2023 06:07 -2,1 C -2,8 C -6,1 C 80 % 1032,4 hPa 0,0 l/m 0 min 0 min 0 W/m 12,9 km/h (3 Bft) 97,14 %
09.02.2023 06:08 -2,1 C -2,8 C -6,1 C 80 % 1032,4 hPa 0,0 l/m 0 min 0 min 0 W/m 6,4 km/h (2 Bft) 95,65 %
09.02.2023 06:10 -2,1 C -2,8 C -6,1 C 80 % 1032,4 hPa 0,0 l/m 0 min 0 min 0 W/m 9,7 km/h (2 Bft) 95,74 %
09.02.2023 06:12 -2,1 C -2,8 C -6,1 C 80 % 1032,4 hPa 0,0 l/m 0 min 0 min 0 W/m 9,7 km/h (2 Bft) 97,87 %
09.02.2023 06:14 -2,2 C -2,8 C -6,1 C 80 % 1032,5 hPa 0,0 l/m 0 min 0 min 0 W/m 3,2 km/h (1 Bft) 97,87 %
09.02.2023 06:16 -2,2 C -2,8 C -6,1 C 80 % 1032,5 hPa 0,0 l/m 0 min 0 min 0 W/m 6,4 km/h (2 Bft) 97,87 %
09.02.2023 06:18 -2,2 C -2,8 C -6,1 C 80 % 1032,5 hPa 0,0 l/m 0 min 0 min 0 W/m 12,9 km/h (3 Bft) 97,83 %
09.02.2023 06:20 -2,2 C -2,8 C -6,1 C 80 % 1032,5 hPa 0,0 l/m 0 min 0 min 0 W/m 16,1 km/h (3 Bft) 97,87 %
09.02.2023 06:22 -2,2 C -2,8 C -6,1 C 80 % 1032,4 hPa 0,0 l/m 0 min 0 min 0 W/m 12,9 km/h (3 Bft) 97,87 %
09.02.2023 06:24 -2,2 C -2,8 C -6,1 C 81 % 1032,4 hPa 0,0 l/m 0 min 0 min 0 W/m 9,7 km/h (2 Bft) 97,87 %
09.02.2023 06:26 -2,2 C -2,8 C -6,1 C 81 % 1032,4 hPa 0,0 l/m 0 min 0 min 0 W/m 12,9 km/h (3 Bft) 95,74 %
09.02.2023 06:28 -2,2 C -2,8 C -6,1 C 81 % 1032,4 hPa 0,0 l/m 0 min 0 min 0 W/m 12,9 km/h (3 Bft) 95,74 %
09.02.2023 06:30 -2,2 C -2,8 C -6,1 C 81 % 1032,4 hPa 0,0 l/m 0 min 0 min 0 W/m 9,7 km/h (2 Bft) 95,74 %
09.02.2023 06:32 -2,2 C -2,8 C -6,1 C 81 % 1032,4 hPa 0,0 l/m 0 min 0 min 0 W/m 12,9 km/h (3 Bft) 97,83 %
09.02.2023 06:34 -2,2 C -2,8 C -6,1 C 81 % 1032,4 hPa 0,0 l/m 0 min 0 min 0 W/m 19,3 km/h (3 Bft) 97,87 %
09.02.2023 06:36 -2,2 C -2,8 C -6,1 C 81 % 1032,3 hPa 0,0 l/m 0 min 0 min 0 W/m 12,9 km/h (3 Bft) 95,74 %
09.02.2023 06:38 -2,2 C -2,8 C -6,1 C 81 % 1032,2 hPa 0,0 l/m 0 min 0 min 0 W/m 16,1 km/h (3 Bft) 95,74 %
09.02.2023 06:40 -2,2 C -2,8 C -6,1 C 81 % 1032,1 hPa 0,0 l/m 0 min 0 min 0 W/m 16,1 km/h (3 Bft) 95,74 %
09.02.2023 06:42 -2,2 C -2,8 C -6,1 C 81 % 1032,1 hPa 0,0 l/m 0 min 0 min 0 W/m 16,1 km/h (3 Bft) 95,74 %
09.02.2023 06:44 -2,2 C -2,8 C -6,1 C 81 % 1032,1 hPa 0,0 l/m 0 min 0 min 0 W/m 16,1 km/h (3 Bft) 97,83 %
09.02.2023 06:46 -2,2 C -2,8 C -6,1 C 81 % 1032,1 hPa 0,0 l/m 0 min 0 min 0 W/m 12,9 km/h (3 Bft) 97,87 %
09.02.2023 06:48 -2,2 C -2,8 C -6,1 C 81 % 1032,1 hPa 0,0 l/m 0 min 0 min 0 W/m 12,9 km/h (3 Bft) 97,87 %
09.02.2023 06:50 -2,2 C -2,8 C -6,1 C 81 % 1032,1 hPa 0,0 l/m 0 min 0 min 0 W/m 16,1 km/h (3 Bft) 97,87 %
09.02.2023 06:52 -2,2 C -2,8 C -6,1 C 81 % 1032,1 hPa 0,0 l/m 0 min 0 min 0 W/m 6,4 km/h (2 Bft) 95,74 %
09.02.2023 06:54 -2,2 C -2,8 C -6,1 C 81 % 1032,1 hPa 0,0 l/m 0 min 0 min 0 W/m 16,1 km/h (3 Bft) 95,74 %
09.02.2023 06:56 -2,2 C -2,8 C -6,1 C 82 % 1032,1 hPa 0,0 l/m 0 min 0 min 0 W/m 12,9 km/h (3 Bft) 100,00 %
09.02.2023 06:58 -2,2 C -2,8 C -6,1 C 82 % 1032,0 hPa 0,0 l/m 0 min 0 min 0 W/m 19,3 km/h (3 Bft) 97,83 %
09.02.2023 07:00 -2,2 C -2,8 C -6,1 C 82 % 1032,0 hPa 0,0 l/m 0 min 0 min 0 W/m 16,1 km/h (3 Bft) 97,87 %
09.02.2023 07:02 -2,2 C -2,8 C -6,1 C 82 % 1032,1 hPa 0,0 l/m 0 min 0 min 0 W/m 9,7 km/h (2 Bft) 100,00 %
09.02.2023 07:04 -2,2 C -2,8 C -6,1 C 82 % 1032,1 hPa 0,0 l/m 0 min 0 min 0 W/m 12,9 km/h (3 Bft) 100,00 %
09.02.2023 07:06 -2,2 C -2,8 C -6,1 C 82 % 1032,3 hPa 0,0 l/m 0 min 0 min 0 W/m 9,7 km/h (2 Bft) 97,87 %
09.02.2023 07:08 -2,2 C -2,8 C -6,1 C 82 % 1032,3 hPa 0,0 l/m 0 min 0 min 0 W/m 12,9 km/h (3 Bft) 97,87 %
09.02.2023 07:10 -2,2 C -2,8 C -6,1 C 82 % 1032,4 hPa 0,0 l/m 0 min 0 min 0 W/m 12,9 km/h (3 Bft) 100,00 %
09.02.2023 07:12 -2,2 C -2,8 C -6,1 C 82 % 1032,4 hPa 0,0 l/m 0 min 0 min 0 W/m 12,9 km/h (3 Bft) 97,87 %
09.02.2023 07:14 -2,2 C -2,8 C -6,1 C 82 % 1032,4 hPa 0,0 l/m 0 min 0 min 0 W/m 12,9 km/h (3 Bft) 97,87 %
09.02.2023 07:16 -2,2 C -2,8 C -6,1 C 82 % 1032,4 hPa 0,0 l/m 0 min 0 min 0 W/m 12,9 km/h (3 Bft) 97,87 %
09.02.2023 07:18 -2,3 C -2,8 C -6,1 C 82 % 1032,4 hPa 0,0 l/m 0 min 0 min 0 W/m 16,1 km/h (3 Bft) 97,87 %
09.02.2023 07:20 -2,2 C -2,8 C -6,1 C 82 % 1032,4 hPa 0,0 l/m 0 min 0 min 0 W/m 12,9 km/h (3 Bft) 95,74 %
09.02.2023 07:22 -2,3 C -2,8 C -6,1 C 82 % 1032,4 hPa 0,0 l/m 0 min 0 min 0 W/m 16,1 km/h (3 Bft) 97,83 %
09.02.2023 07:24 -2,3 C -2,8 C -6,1 C 82 % 1032,4 hPa 0,0 l/m 0 min 0 min 0 W/m 12,9 km/h (3 Bft) 95,74 %
09.02.2023 07:26 -2,3 C -2,8 C -6,1 C 82 % 1032,4 hPa 0,0 l/m 0 min 0 min 0 W/m 12,9 km/h (3 Bft) 97,87 %
09.02.2023 07:28 -2,3 C -2,8 C -6,1 C 82 % 1032,4 hPa 0,0 l/m 0 min 0 min 0 W/m 12,9 km/h (3 Bft) 97,87 %
09.02.2023 07:30 -2,3 C -2,8 C -6,1 C 82 % 1032,4 hPa 0,0 l/m 0 min 0 min 0 W/m 12,9 km/h (3 Bft) 97,87 %
09.02.2023 07:32 -2,3 C -2,8 C -6,1 C 82 % 1032,4 hPa 0,0 l/m 0 min 0 min 0 W/m 12,9 km/h (3 Bft) 95,74 %
09.02.2023 07:34 -2,3 C -2,8 C -6,1 C 82 % 1032,4 hPa 0,0 l/m 0 min 0 min 0 W/m 16,1 km/h (3 Bft) 97,83 %
09.02.2023 07:36 -2,3 C -2,8 C -6,1 C 82 % 1032,2 hPa 0,0 l/m 0 min 0 min 0 W/m 19,3 km/h (3 Bft) 95,74 %
09.02.2023 07:38 -2,3 C -2,8 C -6,1 C 82 % 1032,2 hPa 0,0 l/m 0 min 0 min 0 W/m 19,3 km/h (3 Bft) 97,87 %
09.02.2023 07:40 -2,3 C -2,8 C -6,1 C 82 % 1032,4 hPa 0,0 l/m 0 min 0 min 0 W/m 16,1 km/h (3 Bft) 95,74 %
09.02.2023 07:42 -2,3 C -2,8 C -6,1 C 82 % 1032,4 hPa 0,0 l/m 0 min 0 min 0 W/m 12,9 km/h (3 Bft) 97,87 %
09.02.2023 07:44 -2,3 C -2,8 C -6,7 C 82 % 1032,5 hPa 0,0 l/m 0 min 0 min 0 W/m 9,7 km/h (2 Bft) 97,87 %
09.02.2023 07:46 -2,3 C -3,3 C -6,7 C 82 % 1032,6 hPa 0,0 l/m 0 min 0 min 1 W/m 6,4 km/h (2 Bft) 97,87 %
09.02.2023 07:48 -2,3 C -3,3 C -6,7 C 82 % 1032,6 hPa 0,0 l/m 0 min 0 min 5 W/m 12,9 km/h (3 Bft) 97,83 %
09.02.2023 07:50 -2,3 C -3,3 C -6,7 C 82 % 1032,5 hPa 0,0 l/m 0 min 0 min 5 W/m 6,4 km/h (2 Bft) 100,00 %
09.02.2023 07:52 -2,3 C -3,3 C -6,7 C 82 % 1032,5 hPa 0,0 l/m 0 min 0 min 5 W/m 12,9 km/h (3 Bft) 100,00 %
09.02.2023 07:54 -2,3 C -3,3 C -6,7 C 82 % 1032,6 hPa 0,0 l/m 0 min 0 min 6 W/m 12,9 km/h (3 Bft) 100,00 %
09.02.2023 07:56 -2,3 C -3,3 C -6,7 C 82 % 1032,5 hPa 0,0 l/m 0 min 0 min 7 W/m 12,9 km/h (3 Bft) 100,00 %
09.02.2023 07:58 -2,3 C -3,3 C -6,7 C 82 % 1032,5 hPa 0,0 l/m 0 min 0 min 7 W/m 12,9 km/h (3 Bft) 97,87 %
09.02.2023 08:00 -2,4 C -3,3 C -6,7 C 82 % 1032,6 hPa 0,0 l/m 0 min 0 min 7 W/m 6,4 km/h (2 Bft) 100,00 %
09.02.2023 08:02 -2,4 C -3,3 C -6,7 C 82 % 1032,6 hPa 0,0 l/m 0 min 0 min 9 W/m 12,9 km/h (3 Bft) 100,00 %
09.02.2023 08:04 -2,4 C -3,3 C -6,7 C 82 % 1032,5 hPa 0,0 l/m 0 min 0 min 9 W/m 12,9 km/h (3 Bft) 100,00 %
09.02.2023 08:06 -2,4 C -3,3 C -6,7 C 82 % 1032,6 hPa 0,0 l/m 0 min 0 min 11 W/m 12,9 km/h (3 Bft) 100,00 %
09.02.2023 08:08 -2,4 C -3,3 C -6,7 C 82 % 1032,6 hPa 0,0 l/m 0 min 0 min 12 W/m 16,1 km/h (3 Bft) 97,87 %
09.02.2023 08:10 -2,4 C -3,3 C -6,7 C 82 % 1032,5 hPa 0,0 l/m 0 min 0 min 13 W/m 12,9 km/h (3 Bft) 95,74 %
09.02.2023 08:12 -2,4 C -2,8 C -6,7 C 82 % 1032,5 hPa 0,0 l/m 0 min 0 min 15 W/m 16,1 km/h (3 Bft) 97,87 %
09.02.2023 08:14 -2,4 C -2,8 C -6,7 C 82 % 1032,6 hPa 0,0 l/m 0 min 0 min 17 W/m 16,1 km/h (3 Bft) 95,65 %
09.02.2023 08:16 -2,4 C -2,8 C -6,7 C 82 % 1032,7 hPa 0,0 l/m 0 min 0 min 19 W/m 16,1 km/h (3 Bft) 95,74 %
09.02.2023 08:18 -2,4 C -2,8 C -6,7 C 82 % 1032,8 hPa 0,0 l/m 2 min 0 min 20 W/m 12,9 km/h (3 Bft) 95,74 %
09.02.2023 08:20 -2,4 C -2,8 C -6,1 C 82 % 1032,8 hPa 0,0 l/m 2 min 0 min 23 W/m 12,9 km/h (3 Bft) 95,74 %
09.02.2023 08:22 -2,4 C -2,8 C -6,1 C 82 % 1032,8 hPa 0,0 l/m 2 min 0 min 25 W/m 16,1 km/h (3 Bft) 95,74 %
09.02.2023 08:24 -2,4 C -2,8 C -6,1 C 83 % 1032,8 hPa 0,0 l/m 2 min 0 min 26 W/m 12,9 km/h (3 Bft) 97,87 %
09.02.2023 08:26 -2,4 C -2,8 C -6,1 C 83 % 1032,7 hPa 0,0 l/m 2 min 0 min 28 W/m 12,9 km/h (3 Bft) 95,74 %
09.02.2023 08:28 -2,4 C -2,8 C -6,1 C 83 % 1032,7 hPa 0,0 l/m 2 min 0 min 30 W/m 16,1 km/h (3 Bft) 97,83 %
09.02.2023 08:30 -2,4 C -2,8 C -6,1 C 83 % 1032,8 hPa 0,0 l/m 2 min 0 min 32 W/m 6,4 km/h (2 Bft) 97,87 %
09.02.2023 08:32 -2,4 C -2,8 C -6,1 C 83 % 1032,7 hPa 0,0 l/m 2 min 0 min 34 W/m 12,9 km/h (3 Bft) 95,74 %
09.02.2023 08:34 -2,3 C -2,8 C -6,1 C 83 % 1032,6 hPa 0,0 l/m 0 min 0 min 35 W/m 9,7 km/h (2 Bft) 97,87 %
09.02.2023 08:36 -2,3 C -2,8 C -6,1 C 83 % 1032,7 hPa 0,0 l/m 0 min 0 min 37 W/m 12,9 km/h (3 Bft) 93,62 %
09.02.2023 08:38 -2,3 C -2,2 C -6,1 C 83 % 1032,7 hPa 0,0 l/m 0 min 0 min 38 W/m 12,9 km/h (3 Bft) 97,87 %
09.02.2023 08:40 -2,3 C -2,2 C -6,1 C 83 % 1032,7 hPa 0,0 l/m 0 min 0 min 40 W/m 16,1 km/h (3 Bft) 100,00 %
09.02.2023 08:42 -2,3 C -2,2 C -6,1 C 83 % 1032,6 hPa 0,0 l/m 0 min 0 min 42 W/m 12,9 km/h (3 Bft) 95,74 %
09.02.2023 08:44 -2,3 C -2,2 C -6,1 C 83 % 1032,7 hPa 0,0 l/m 0 min 0 min 44 W/m 16,1 km/h (3 Bft) 97,87 %
09.02.2023 08:46 -2,2 C -2,2 C -6,1 C 83 % 1032,8 hPa 0,0 l/m 0 min 0 min 46 W/m 12,9 km/h (3 Bft) 97,87 %
09.02.2023 08:48 -2,2 C -2,2 C -6,1 C 83 % 1032,7 hPa 0,0 l/m 0 min 0 min 49 W/m 16,1 km/h (3 Bft) 97,87 %
09.02.2023 08:50 -2,2 C -2,2 C -6,1 C 82 % 1032,6 hPa 0,0 l/m 0 min 0 min 51 W/m 16,1 km/h (3 Bft) 95,74 %
09.02.2023 08:52 -2,1 C -2,2 C -6,1 C 82 % 1032,6 hPa 0,0 l/m 0 min 0 min 51 W/m 16,1 km/h (3 Bft) 97,83 %
09.02.2023 08:54 -2,1 C -2,2 C -5,6 C 83 % 1032,5 hPa 0,0 l/m 0 min 0 min 53 W/m 19,3 km/h (3 Bft) 97,87 %
09.02.2023 08:56 -2,1 C -2,2 C -5,6 C 82 % 1032,6 hPa 0,0 l/m 0 min 0 min 57 W/m 19,3 km/h (3 Bft) 93,62 %
09.02.2023 08:58 -2,0 C -2,2 C -5,6 C 82 % 1032,6 hPa 0,0 l/m 2 min 0 min 70 W/m 19,3 km/h (3 Bft) 95,74 %
09.02.2023 09:00 -2,0 C -2,2 C -5,6 C 82 % 1032,6 hPa 0,0 l/m 2 min 0 min 72 W/m 19,3 km/h (3 Bft) 97,87 %
09.02.2023 09:02 -1,9 C -2,2 C -5,6 C 82 % 1032,7 hPa 0,0 l/m 2 min 0 min 71 W/m 12,9 km/h (3 Bft) 97,87 %
09.02.2023 09:04 -1,9 C -1,7 C -5,6 C 82 % 1032,8 hPa 0,0 l/m 2 min 0 min 80 W/m 16,1 km/h (3 Bft) 93,62 %
09.02.2023 09:06 -1,9 C -1,7 C -5,6 C 82 % 1032,7 hPa 0,0 l/m 2 min 0 min 91 W/m 16,1 km/h (3 Bft) 95,65 %
09.02.2023 09:08 -1,8 C -1,7 C -5,6 C 82 % 1032,7 hPa 0,0 l/m 2 min 0 min 86 W/m 16,1 km/h (3 Bft) 97,87 %
09.02.2023 09:10 -1,8 C -1,7 C -5,6 C 82 % 1032,8 hPa 0,0 l/m 2 min 0 min 81 W/m 16,1 km/h (3 Bft) 97,87 %
09.02.2023 09:12 -1,8 C -1,7 C -5,6 C 82 % 1032,8 hPa 0,0 l/m 2 min 0 min 79 W/m 16,1 km/h (3 Bft) 95,74 %
09.02.2023 09:14 -1,7 C -1,7 C -5,6 C 82 % 1032,8 hPa 0,0 l/m 2 min 0 min 91 W/m 9,7 km/h (2 Bft) 97,87 %
09.02.2023 09:16 -1,7 C -1,7 C -5,6 C 82 % 1032,9 hPa 0,0 l/m 0 min 0 min 81 W/m 16,1 km/h (3 Bft) 95,74 %
09.02.2023 09:18 -1,7 C -1,7 C -5,6 C 82 % 1032,9 hPa 0,0 l/m 0 min 0 min 79 W/m 12,9 km/h (3 Bft) 97,87 %
09.02.2023 09:20 -1,6 C -1,7 C -5,6 C 82 % 1033,0 hPa 0,0 l/m 0 min 0 min 83 W/m 9,7 km/h (2 Bft) 97,83 %
09.02.2023 09:22 -1,6 C -1,1 C -5,6 C 82 % 1033,1 hPa 0,0 l/m 2 min 0 min 96 W/m 6,4 km/h (2 Bft) 95,74 %
09.02.2023 09:24 -1,6 C -1,1 C -5,0 C 82 % 1033,1 hPa 0,0 l/m 2 min 0 min 99 W/m 6,4 km/h (2 Bft) 95,74 %
09.02.2023 09:26 -1,5 C -1,1 C -5,0 C 82 % 1033,1 hPa 0,0 l/m 2 min 0 min 102 W/m 12,9 km/h (3 Bft) 97,87 %
09.02.2023 09:28 -1,4 C -1,1 C -5,0 C 82 % 1033,2 hPa 0,0 l/m 2 min 0 min 97 W/m 16,1 km/h (3 Bft) 97,87 %
09.02.2023 09:30 -1,4 C -1,1 C -5,0 C 82 % 1033,3 hPa 0,0 l/m 2 min 0 min 106 W/m 12,9 km/h (3 Bft) 97,87 %
09.02.2023 09:32 -1,4 C -1,1 C -5,0 C 81 % 1033,2 hPa 0,0 l/m 2 min 0 min 108 W/m 12,9 km/h (3 Bft) 93,48 %
09.02.2023 09:34 -1,3 C -1,1 C -5,0 C 81 % 1033,2 hPa 0,0 l/m 2 min 0 min 111 W/m 12,9 km/h (3 Bft) 97,87 %
09.02.2023 09:36 -1,3 C -1,1 C -5,0 C 81 % 1033,2 hPa 0,0 l/m 2 min 0 min 115 W/m 12,9 km/h (3 Bft) 97,87 %
09.02.2023 09:38 -1,3 C -0,6 C -5,0 C 81 % 1033,1 hPa 0,0 l/m 2 min 0 min 107 W/m 12,9 km/h (3 Bft) 95,74 %
09.02.2023 09:40 -1,2 C -0,6 C -5,0 C 81 % 1033,2 hPa 0,0 l/m 2 min 0 min 125 W/m 16,1 km/h (3 Bft) 97,87 %
09.02.2023 09:42 -1,2 C -0,6 C -5,0 C 81 % 1033,2 hPa 0,0 l/m 2 min 0 min 149 W/m 6,4 km/h (2 Bft) 93,62 %
09.02.2023 09:44 -1,1 C -0,6 C -5,0 C 81 % 1033,3 hPa 0,0 l/m 2 min 0 min 144 W/m 6,4 km/h (2 Bft) 97,87 %
09.02.2023 09:46 -1,1 C -0,6 C -4,4 C 81 % 1033,2 hPa 0,0 l/m 2 min 0 min 188 W/m 16,1 km/h (3 Bft) 94,29 %
09.02.2023 09:48 -1,0 C 0,0 C -4,4 C 81 % 1033,3 hPa 0,0 l/m 2 min 0 min 190 W/m 12,9 km/h (3 Bft) 94,83 %
09.02.2023 09:50 -0,9 C 0,0 C -4,4 C 81 % 1033,2 hPa 0,0 l/m 2 min 0 min 139 W/m 16,1 km/h (3 Bft) 97,14 %
09.02.2023 09:52 -0,9 C 0,6 C -4,4 C 81 % 1033,2 hPa 0,0 l/m 2 min 0 min 140 W/m 6,4 km/h (2 Bft) 97,87 %
09.02.2023 09:54 -0,8 C 1,1 C -4,4 C 81 % 1033,3 hPa 0,0 l/m 2 min 0 min 128 W/m 6,4 km/h (2 Bft) 96,61 %
09.02.2023 09:56 -0,8 C 1,7 C -4,4 C 81 % 1033,3 hPa 0,0 l/m 2 min 0 min 146 W/m 9,7 km/h (2 Bft) 95,74 %
09.02.2023 09:58 -0,7 C 2,2 C -4,4 C 81 % 1033,3 hPa 0,0 l/m 2 min 0 min 202 W/m 16,1 km/h (3 Bft) 97,83 %
09.02.2023 10:00 -0,6 C 1,7 C -4,4 C 81 % 1033,4 hPa 0,0 l/m 2 min 0 min 169 W/m 16,1 km/h (3 Bft) 91,67 %
09.02.2023 10:02 -0,6 C 1,7 C -4,4 C 80 % 1033,4 hPa 0,0 l/m 2 min 0 min 175 W/m 19,3 km/h (3 Bft) 96,55 %
09.02.2023 10:04 -0,5 C 1,1 C -4,4 C 80 % 1033,4 hPa 0,0 l/m 2 min 0 min 161 W/m 16,1 km/h (3 Bft) 95,83 %
09.02.2023 10:06 -0,4 C 1,1 C -4,4 C 79 % 1033,3 hPa 0,0 l/m 2 min 0 min 158 W/m 16,1 km/h (3 Bft) 95,74 %
09.02.2023 10:08 -0,4 C 1,1 C -4,4 C 79 % 1033,4 hPa 0,0 l/m 2 min 0 min 178 W/m 12,9 km/h (3 Bft) 97,87 %
09.02.2023 10:10 -0,3 C 1,1 C -4,4 C 79 % 1033,3 hPa 0,0 l/m 2 min 0 min 184 W/m 12,9 km/h (3 Bft) 97,14 %
09.02.2023 10:12 -0,3 C 1,1 C -4,4 C 79 % 1033,4 hPa 0,0 l/m 2 min 0 min 170 W/m 12,9 km/h (3 Bft) 96,55 %
09.02.2023 10:14 -0,2 C 1,7 C -4,4 C 79 % 1033,5 hPa 0,0 l/m 2 min 0 min 184 W/m 12,9 km/h (3 Bft) 94,29 %
09.02.2023 10:16 -0,2 C 2,2 C -3,9 C 78 % 1033,5 hPa 0,0 l/m 2 min 0 min 192 W/m 12,9 km/h (3 Bft) 95,74 %
09.02.2023 10:18 -0,2 C 2,2 C -3,9 C 79 % 1033,5 hPa 0,0 l/m 2 min 0 min 194 W/m 12,9 km/h (3 Bft) 95,74 %
09.02.2023 10:20 -0,1 C 2,8 C -3,9 C 78 % 1033,5 hPa 0,0 l/m 2 min 0 min 210 W/m 16,1 km/h (3 Bft) 95,74 %
09.02.2023 10:22 0,0 C 3,3 C -3,9 C 78 % 1033,5 hPa 0,0 l/m 2 min 0 min 231 W/m 12,9 km/h (3 Bft) 95,74 %
09.02.2023 10:24 0,1 C 3,9 C -3,9 C 78 % 1033,4 hPa 0,0 l/m 2 min 0 min 229 W/m 12,9 km/h (3 Bft) 95,74 %
09.02.2023 10:26 0,1 C 3,9 C -3,9 C 78 % 1033,5 hPa 0,0 l/m 2 min 0 min 211 W/m 12,9 km/h (3 Bft) 93,48 %
09.02.2023 10:28 0,2 C 4,4 C -3,9 C 78 % 1033,4 hPa 0,0 l/m 2 min 0 min 201 W/m 6,4 km/h (2 Bft) 95,74 %
09.02.2023 10:30 0,3 C 4,4 C -3,9 C 78 % 1033,5 hPa 0,0 l/m 2 min 0 min 190 W/m 16,1 km/h (3 Bft) 95,74 %
09.02.2023 10:32 0,4 C 4,4 C -3,9 C 77 % 1033,5 hPa 0,0 l/m 2 min 0 min 190 W/m 12,9 km/h (3 Bft) 95,74 %
09.02.2023 10:34 0,4 C 4,4 C -3,3 C 77 % 1033,4 hPa 0,0 l/m 2 min 0 min 200 W/m 12,9 km/h (3 Bft) 95,74 %
09.02.2023 10:36 0,6 C 5,0 C -3,3 C 77 % 1033,4 hPa 0,0 l/m 2 min 0 min 238 W/m 16,1 km/h (3 Bft) 95,74 %
09.02.2023 10:38 0,6 C 5,6 C -3,3 C 77 % 1033,4 hPa 0,0 l/m 2 min 0 min 261 W/m 12,9 km/h (3 Bft) 95,74 %
09.02.2023 10:40 0,6 C 5,6 C -3,3 C 77 % 1033,4 hPa 0,0 l/m 2 min 0 min 236 W/m 6,4 km/h (2 Bft) 95,65 %
09.02.2023 10:42 0,7 C 5,6 C -3,3 C 77 % 1033,5 hPa 0,0 l/m 2 min 0 min 250 W/m 9,7 km/h (2 Bft) 95,74 %
09.02.2023 10:44 0,7 C 6,1 C -3,3 C 77 % 1033,5 hPa 0,0 l/m 2 min 0 min 251 W/m 9,7 km/h (2 Bft) 93,62 %
09.02.2023 10:46 0,8 C 6,1 C -3,3 C 76 % 1033,4 hPa 0,0 l/m 2 min 0 min 275 W/m 12,9 km/h (3 Bft) 93,62 %
09.02.2023 10:48 0,9 C 6,1 C -3,3 C 76 % 1033,4 hPa 0,0 l/m 2 min 0 min 260 W/m 12,9 km/h (3 Bft) 95,74 %
09.02.2023 10:50 1,0 C 6,1 C -3,3 C 76 % 1033,4 hPa 0,0 l/m 2 min 0 min 281 W/m 12,9 km/h (3 Bft) 95,74 %
09.02.2023 10:52 1,1 C 6,1 C -3,3 C 76 % 1033,4 hPa 0,0 l/m 2 min 0 min 321 W/m 16,1 km/h (3 Bft) 95,65 %
09.02.2023 10:54 1,2 C 6,7 C -3,3 C 76 % 1033,4 hPa 0,0 l/m 2 min 0 min 329 W/m 16,1 km/h (3 Bft) 95,74 %
09.02.2023 10:56 1,3 C 6,7 C -2,8 C 75 % 1033,3 hPa 0,0 l/m 2 min 0 min 328 W/m 16,1 km/h (3 Bft) 93,62 %
09.02.2023 10:58 1,4 C 7,2 C -2,8 C 75 % 1033,2 hPa 0,0 l/m 2 min 0 min 333 W/m 12,9 km/h (3 Bft) 95,74 %
09.02.2023 11:00 1,5 C 7,2 C -2,8 C 75 % 1033,1 hPa 0,0 l/m 2 min 0 min 327 W/m 19,3 km/h (3 Bft) 95,74 %
09.02.2023 11:02 1,6 C 6,7 C -2,8 C 74 % 1033,0 hPa 0,0 l/m 2 min 0 min 321 W/m 19,3 km/h (3 Bft) 97,87 %
09.02.2023 11:04 1,6 C 6,1 C -2,8 C 74 % 1032,9 hPa 0,0 l/m 2 min 0 min 304 W/m 19,3 km/h (3 Bft) 97,87 %
09.02.2023 11:06 1,7 C 6,1 C -2,8 C 73 % 1032,9 hPa 0,0 l/m 2 min 0 min 311 W/m 19,3 km/h (3 Bft) 94,83 %
09.02.2023 11:08 1,7 C 6,1 C -2,8 C 73 % 1032,9 hPa 0,0 l/m 2 min 0 min 308 W/m 16,1 km/h (3 Bft) 97,14 %
09.02.2023 11:10 1,8 C 6,7 C -2,2 C 73 % 1033,0 hPa 0,0 l/m 2 min 0 min 323 W/m 16,1 km/h (3 Bft) 95,74 %
09.02.2023 11:12 1,9 C 7,2 C -2,2 C 73 % 1033,0 hPa 0,0 l/m 2 min 0 min 319 W/m 9,7 km/h (2 Bft) 93,62 %
09.02.2023 11:14 2,0 C 7,8 C -2,2 C 73 % 1033,1 hPa 0,0 l/m 2 min 0 min 328 W/m 6,4 km/h (2 Bft) 95,74 %
09.02.2023 11:16 2,1 C 7,2 C -2,2 C 73 % 1033,1 hPa 0,0 l/m 2 min 0 min 314 W/m 19,3 km/h (3 Bft) 93,62 %
09.02.2023 11:18 2,1 C 6,1 C -2,2 C 72 % 1033,1 hPa 0,0 l/m 2 min 0 min 270 W/m 16,1 km/h (3 Bft) 95,65 %
09.02.2023 11:20 2,2 C 6,1 C -2,2 C 72 % 1033,2 hPa 0,0 l/m 2 min 0 min 261 W/m 12,9 km/h (3 Bft) 97,87 %
09.02.2023 11:22 2,2 C 6,1 C -1,7 C 72 % 1033,2 hPa 0,0 l/m 2 min 0 min 274 W/m 12,9 km/h (3 Bft) 93,62 %
09.02.2023 11:24 2,3 C 6,1 C -1,7 C 72 % 1033,3 hPa 0,0 l/m 2 min 0 min 253 W/m 9,7 km/h (2 Bft) 95,74 %
09.02.2023 11:26 2,3 C 6,1 C -1,7 C 71 % 1033,3 hPa 0,0 l/m 2 min 0 min 237 W/m 12,9 km/h (3 Bft) 95,74 %
09.02.2023 11:28 2,3 C 6,1 C -1,7 C 71 % 1033,3 hPa 0,0 l/m 2 min 0 min 233 W/m 6,4 km/h (2 Bft) 91,49 %
09.02.2023 11:30 2,4 C 5,6 C -1,7 C 71 % 1033,2 hPa 0,0 l/m 2 min 0 min 259 W/m 16,1 km/h (3 Bft) 93,62 %
09.02.2023 11:32 2,4 C 6,1 C -1,7 C 71 % 1033,3 hPa 0,0 l/m 2 min 0 min 264 W/m 9,7 km/h (2 Bft) 93,48 %
09.02.2023 11:34 2,5 C 5,6 C -1,7 C 71 % 1033,3 hPa 0,0 l/m 2 min 0 min 257 W/m 12,9 km/h (3 Bft) 95,74 %
09.02.2023 11:36 2,5 C 5,6 C -1,7 C 71 % 1033,4 hPa 0,0 l/m 2 min 0 min 276 W/m 9,7 km/h (2 Bft) 95,74 %
09.02.2023 11:38 2,6 C 5,6 C -1,7 C 70 % 1033,3 hPa 0,0 l/m 2 min 0 min 283 W/m 12,9 km/h (3 Bft) 93,62 %
09.02.2023 11:40 2,6 C 5,6 C -1,7 C 70 % 1033,1 hPa 0,0 l/m 2 min 0 min 278 W/m 16,1 km/h (3 Bft) 95,74 %
09.02.2023 11:42 2,6 C 5,0 C -1,7 C 70 % 1033,1 hPa 0,0 l/m 2 min 0 min 249 W/m 16,1 km/h (3 Bft) 95,74 %
09.02.2023 11:44 2,7 C 5,6 C -1,7 C 70 % 1033,2 hPa 0,0 l/m 2 min 0 min 228 W/m 9,7 km/h (2 Bft) 95,74 %
09.02.2023 11:46 2,7 C 5,6 C -1,1 C 70 % 1033,2 hPa 0,0 l/m 2 min 0 min 221 W/m 9,7 km/h (2 Bft) 93,48 %
09.02.2023 11:48 2,7 C 5,6 C -1,1 C 70 % 1033,2 hPa 0,0 l/m 2 min 0 min 225 W/m 12,9 km/h (3 Bft) 95,74 %
09.02.2023 11:50 2,8 C 5,6 C -1,1 C 70 % 1033,2 hPa 0,0 l/m 2 min 0 min 236 W/m 9,7 km/h (2 Bft) 95,74 %
09.02.2023 11:52 2,8 C 5,6 C -1,1 C 70 % 1033,2 hPa 0,0 l/m 2 min 0 min 207 W/m 12,9 km/h (3 Bft) 95,74 %
09.02.2023 11:54 2,8 C 5,0 C -1,1 C 70 % 1033,3 hPa 0,0 l/m 2 min 0 min 207 W/m 16,1 km/h (3 Bft) 95,74 %
09.02.2023 11:56 2,8 C 5,0 C -1,1 C 69 % 1033,3 hPa 0,0 l/m 2 min 0 min 216 W/m 16,1 km/h (3 Bft) 93,62 %
09.02.2023 11:58 2,8 C 5,0 C -1,1 C 69 % 1033,2 hPa 0,0 l/m 2 min 0 min 215 W/m 16,1 km/h (3 Bft) 95,65 %
09.02.2023 12:00 2,9 C 5,0 C -1,1 C 69 % 1033,1 hPa 0,0 l/m 2 min 0 min 229 W/m 16,1 km/h (3 Bft) 95,74 %
09.02.2023 12:02 2,9 C 5,0 C -1,1 C 69 % 1033,1 hPa 0,0 l/m 2 min 0 min 236 W/m 12,9 km/h (3 Bft) 97,87 %
09.02.2023 12:04 2,9 C 5,0 C -1,1 C 69 % 1033,1 hPa 0,0 l/m 2 min 0 min 207 W/m 16,1 km/h (3 Bft) 97,96 %
09.02.2023 12:07 3,0 C 5,6 C -1,1 C 70 % 1033,1 hPa 0,0 l/m 0 min 0 min 182 W/m 12,9 km/h (3 Bft) 96,39 %
09.02.2023 12:08 3,0 C 5,6 C -0,6 C 70 % 1033,1 hPa 0,0 l/m 0 min 0 min 176 W/m 6,4 km/h (2 Bft) 91,67 %
09.02.2023 12:12 3,1 C 5,0 C -0,6 C 69 % 1033,1 hPa 0,0 l/m 0 min 0 min 179 W/m 9,7 km/h (2 Bft) 98,28 %
09.02.2023 12:14 3,1 C 5,0 C -0,6 C 69 % 1033,2 hPa 0,0 l/m 0 min 0 min 190 W/m 12,9 km/h (3 Bft) 97,87 %
09.02.2023 12:16 3,2 C 5,0 C -0,6 C 69 % 1033,2 hPa 0,0 l/m 0 min 0 min 184 W/m 16,1 km/h (3 Bft) 95,74 %
09.02.2023 12:18 3,2 C 5,0 C -0,6 C 69 % 1033,2 hPa 0,0 l/m 0 min 0 min 189 W/m 12,9 km/h (3 Bft) 97,83 %
09.02.2023 12:20 3,2 C 5,0 C 0,0 C 69 % 1033,2 hPa 0,0 l/m 0 min 0 min 183 W/m 16,1 km/h (3 Bft) 100,00 %
09.02.2023 12:22 3,3 C 5,0 C 0,0 C 69 % 1033,2 hPa 0,0 l/m 0 min 0 min 186 W/m 12,9 km/h (3 Bft) 100,00 %
09.02.2023 12:24 3,3 C 5,6 C 0,0 C 69 % 1033,3 hPa 0,0 l/m 2 min 0 min 217 W/m 12,9 km/h (3 Bft) 100,00 %
09.02.2023 12:26 3,3 C 5,6 C 0,6 C 69 % 1033,2 hPa 0,0 l/m 2 min 0 min 209 W/m 12,9 km/h (3 Bft) 97,87 %
09.02.2023 12:28 3,4 C 5,6 C 0,6 C 69 % 1033,3 hPa 0,0 l/m 0 min 0 min 197 W/m 9,7 km/h (2 Bft) 95,74 %
09.02.2023 12:30 3,4 C 6,1 C 0,6 C 69 % 1033,4 hPa 0,0 l/m 0 min 0 min 197 W/m 12,9 km/h (3 Bft) 97,83 %
09.02.2023 12:32 3,4 C 6,1 C 1,1 C 68 % 1033,2 hPa 0,0 l/m 0 min 0 min 191 W/m 12,9 km/h (3 Bft) 95,74 %
09.02.2023 12:34 3,5 C 6,7 C 0,6 C 68 % 1033,1 hPa 0,0 l/m 2 min 0 min 210 W/m 9,7 km/h (2 Bft) 97,87 %
09.02.2023 12:36 3,6 C 6,7 C 0,6 C 68 % 1032,9 hPa 0,0 l/m 2 min 0 min 219 W/m 9,7 km/h (2 Bft) 97,87 %
09.02.2023 12:38 3,6 C 5,6 C 0,6 C 67 % 1032,9 hPa 0,0 l/m 2 min 0 min 235 W/m 25,7 km/h (4 Bft) 95,74 %
09.02.2023 12:40 3,7 C 5,6 C 0,6 C 66 % 1032,9 hPa 0,0 l/m 2 min 0 min 231 W/m 12,9 km/h (3 Bft) 97,87 %
09.02.2023 12:42 3,7 C 5,6 C 0,0 C 66 % 1033,0 hPa 0,0 l/m 2 min 0 min 224 W/m 12,9 km/h (3 Bft) 97,87 %
09.02.2023 12:44 3,8 C 6,1 C 0,0 C 65 % 1032,9 hPa 0,0 l/m 2 min 0 min 218 W/m 9,7 km/h (2 Bft) 97,83 %
09.02.2023 12:46 3,8 C 5,6 C 0,0 C 65 % 1032,7 hPa 0,0 l/m 2 min 0 min 229 W/m 22,5 km/h (4 Bft) 95,74 %
09.02.2023 12:48 3,8 C 6,1 C 0,0 C 65 % 1032,9 hPa 0,0 l/m 2 min 0 min 234 W/m 12,9 km/h (3 Bft) 97,87 %
09.02.2023 12:50 3,9 C 6,1 C 0,0 C 65 % 1033,0 hPa 0,0 l/m 2 min 0 min 226 W/m 12,9 km/h (3 Bft) 95,74 %
09.02.2023 12:52 3,9 C 6,7 C 0,0 C 65 % 1032,9 hPa 0,0 l/m 2 min 0 min 251 W/m 6,4 km/h (2 Bft) 97,87 %
09.02.2023 12:54 4,0 C 6,7 C 0,0 C 65 % 1033,1 hPa 0,0 l/m 2 min 0 min 251 W/m 12,9 km/h (3 Bft) 95,74 %
09.02.2023 12:56 4,1 C 6,7 C 0,0 C 65 % 1033,1 hPa 0,0 l/m 2 min 0 min 267 W/m 16,1 km/h (3 Bft) 97,87 %
09.02.2023 12:58 4,1 C 6,7 C 0,0 C 64 % 1033,1 hPa 0,0 l/m 2 min 0 min 300 W/m 16,1 km/h (3 Bft) 97,83 %
09.02.2023 13:00 4,2 C 7,2 C 0,0 C 64 % 1033,0 hPa 0,0 l/m 2 min 0 min 337 W/m 16,1 km/h (3 Bft) 100,00 %
09.02.2023 13:02 4,2 C 7,8 C 0,0 C 63 % 1032,8 hPa 0,0 l/m 2 min 0 min 349 W/m 12,9 km/h (3 Bft) 97,87 %
09.02.2023 13:04 4,3 C 8,3 C 0,0 C 63 % 1032,7 hPa 0,0 l/m 2 min 0 min 376 W/m 19,3 km/h (3 Bft) 100,00 %
09.02.2023 13:06 4,3 C 8,3 C 0,0 C 64 % 1032,7 hPa 0,0 l/m 2 min 0 min 373 W/m 16,1 km/h (3 Bft) 98,28 %
09.02.2023 13:08 4,4 C 8,3 C 0,0 C 63 % 1032,7 hPa 0,0 l/m 2 min 0 min 357 W/m 12,9 km/h (3 Bft) 100,00 %
09.02.2023 13:10 4,4 C 8,3 C 0,6 C 63 % 1032,7 hPa 0,0 l/m 2 min 0 min 333 W/m 16,1 km/h (3 Bft) 100,00 %
09.02.2023 13:12 4,6 C 8,3 C 0,6 C 63 % 1032,7 hPa 0,0 l/m 2 min 0 min 334 W/m 12,9 km/h (3 Bft) 100,00 %
09.02.2023 13:14 4,6 C 8,3 C 0,6 C 63 % 1032,7 hPa 0,0 l/m 2 min 0 min 306 W/m 12,9 km/h (3 Bft) 100,00 %
09.02.2023 13:16 4,7 C 8,3 C 0,6 C 63 % 1032,8 hPa 0,0 l/m 2 min 0 min 302 W/m 19,3 km/h (3 Bft) 100,00 %
09.02.2023 13:18 4,7 C 8,3 C 0,6 C 63 % 1032,7 hPa 0,0 l/m 2 min 0 min 309 W/m 9,7 km/h (2 Bft) 100,00 %
09.02.2023 13:20 4,7 C 8,3 C 0,6 C 63 % 1032,8 hPa 0,0 l/m 2 min 0 min 320 W/m 16,1 km/h (3 Bft) 100,00 %
09.02.2023 13:22 4,7 C 8,3 C 0,6 C 63 % 1032,8 hPa 0,0 l/m 2 min 0 min 319 W/m 25,7 km/h (4 Bft) 100,00 %
09.02.2023 13:24 4,8 C 8,9 C 0,6 C 63 % 1032,8 hPa 0,0 l/m 2 min 0 min 338 W/m 12,9 km/h (3 Bft) 100,00 %
09.02.2023 13:26 4,8 C 8,9 C 0,6 C 63 % 1032,8 hPa 0,0 l/m 2 min 0 min 329 W/m 12,9 km/h (3 Bft) 100,00 %
09.02.2023 13:28 4,9 C 8,9 C 0,6 C 62 % 1032,9 hPa 0,0 l/m 2 min 0 min 337 W/m 16,1 km/h (3 Bft) 100,00 %
09.02.2023 13:30 4,9 C 8,9 C 0,6 C 62 % 1032,9 hPa 0,0 l/m 2 min 0 min 307 W/m 12,9 km/h (3 Bft) 97,87 %
09.02.2023 13:32 5,0 C 8,9 C 0,6 C 62 % 1032,9 hPa 0,0 l/m 2 min 0 min 309 W/m 16,1 km/h (3 Bft) 100,00 %
09.02.2023 13:34 5,1 C 8,3 C 0,6 C 62 % 1032,9 hPa 0,0 l/m 2 min 0 min 308 W/m 12,9 km/h (3 Bft) 97,87 %
09.02.2023 13:36 5,1 C 8,9 C 0,6 C 62 % 1033,0 hPa 0,0 l/m 2 min 0 min 329 W/m 16,1 km/h (3 Bft) 100,00 %
09.02.2023 13:38 5,2 C 10,0 C 0,6 C 63 % 1033,0 hPa 0,0 l/m 2 min 0 min 367 W/m 3,2 km/h (1 Bft) 100,00 %
09.02.2023 13:40 5,3 C 10,0 C 0,6 C 62 % 1032,9 hPa 0,0 l/m 2 min 0 min 351 W/m 3,2 km/h (1 Bft) 100,00 %
09.02.2023 13:42 5,3 C 10,0 C 0,6 C 62 % 1033,0 hPa 0,0 l/m 2 min 0 min 361 W/m 12,9 km/h (3 Bft) 100,00 %
09.02.2023 13:44 5,3 C 9,4 C 0,6 C 62 % 1032,9 hPa 0,0 l/m 2 min 0 min 341 W/m 9,7 km/h (2 Bft) 97,87 %
09.02.2023 13:46 5,4 C 9,4 C 0,6 C 62 % 1032,9 hPa 0,0 l/m 2 min 0 min 317 W/m 12,9 km/h (3 Bft) 100,00 %
09.02.2023 13:48 5,4 C 8,9 C 0,6 C 62 % 1032,9 hPa 0,0 l/m 2 min 0 min 293 W/m 16,1 km/h (3 Bft) 100,00 %
09.02.2023 13:50 5,4 C 8,3 C 0,6 C 62 % 1032,9 hPa 0,0 l/m 2 min 0 min 308 W/m 12,9 km/h (3 Bft) 100,00 %
09.02.2023 13:52 5,4 C 8,3 C 0,6 C 62 % 1032,9 hPa 0,0 l/m 2 min 0 min 311 W/m 3,2 km/h (1 Bft) 100,00 %
09.02.2023 13:54 5,4 C 8,9 C 0,6 C 62 % 1032,9 hPa 0,0 l/m 2 min 0 min 313 W/m 6,4 km/h (2 Bft) 95,65 %
09.02.2023 13:56 5,5 C 8,9 C 0,6 C 62 % 1032,8 hPa 0,0 l/m 2 min 0 min 309 W/m 9,7 km/h (2 Bft) 95,74 %
09.02.2023 13:58 5,6 C 8,9 C 0,6 C 62 % 1032,8 hPa 0,0 l/m 2 min 0 min 296 W/m 12,9 km/h (3 Bft) 95,74 %
09.02.2023 14:00 5,6 C 8,3 C 0,6 C 62 % 1032,8 hPa 0,0 l/m 2 min 0 min 294 W/m 16,1 km/h (3 Bft) 97,87 %
09.02.2023 14:02 5,6 C 8,3 C 1,1 C 62 % 1032,7 hPa 0,0 l/m 2 min 0 min 284 W/m 9,7 km/h (2 Bft) 97,87 %
09.02.2023 14:04 5,7 C 7,8 C 1,1 C 62 % 1032,7 hPa 0,0 l/m 2 min 0 min 280 W/m 12,9 km/h (3 Bft) 95,74 %
09.02.2023 14:06 5,7 C 7,8 C 1,1 C 62 % 1032,6 hPa 0,0 l/m 2 min 0 min 316 W/m 9,7 km/h (2 Bft) 97,87 %
09.02.2023 14:08 5,8 C 8,3 C 1,1 C 62 % 1032,6 hPa 0,0 l/m 2 min 0 min 339 W/m 9,7 km/h (2 Bft) 97,83 %
09.02.2023 14:10 5,8 C 8,3 C 1,1 C 62 % 1032,6 hPa 0,0 l/m 2 min 0 min 342 W/m 12,9 km/h (3 Bft) 97,87 %
09.02.2023 14:12 5,9 C 8,3 C 1,1 C 62 % 1032,6 hPa 0,0 l/m 2 min 0 min 307 W/m 9,7 km/h (2 Bft) 93,62 %
09.02.2023 14:14 5,9 C 8,3 C 1,1 C 62 % 1032,6 hPa 0,0 l/m 2 min 0 min 330 W/m 6,4 km/h (2 Bft) 97,87 %
09.02.2023 14:16 5,9 C 7,8 C 1,1 C 61 % 1032,5 hPa 0,0 l/m 2 min 0 min 302 W/m 9,7 km/h (2 Bft) 97,87 %
09.02.2023 14:18 5,9 C 7,2 C 1,1 C 60 % 1032,5 hPa 0,0 l/m 2 min 0 min 266 W/m 6,4 km/h (2 Bft) 97,87 %
09.02.2023 14:20 5,9 C 7,8 C 1,1 C 60 % 1032,4 hPa 0,0 l/m 2 min 0 min 283 W/m 6,4 km/h (2 Bft) 95,65 %
09.02.2023 14:22 5,9 C 7,8 C 1,1 C 61 % 1032,5 hPa 0,0 l/m 2 min 0 min 311 W/m 12,9 km/h (3 Bft) 97,87 %
09.02.2023 14:24 5,9 C 8,3 C 1,1 C 61 % 1032,5 hPa 0,0 l/m 2 min 0 min 345 W/m 12,9 km/h (3 Bft) 97,87 %
09.02.2023 14:26 6,0 C 7,8 C 1,1 C 60 % 1032,5 hPa 0,0 l/m 2 min 0 min 325 W/m 22,5 km/h (4 Bft) 97,87 %
09.02.2023 14:28 6,0 C 7,8 C 1,1 C 59 % 1032,5 hPa 0,0 l/m 2 min 0 min 293 W/m 19,3 km/h (3 Bft) 97,87 %
09.02.2023 14:30 6,0 C 7,8 C 1,1 C 58 % 1032,5 hPa 0,0 l/m 2 min 0 min 291 W/m 12,9 km/h (3 Bft) 95,74 %
09.02.2023 14:32 6,1 C 8,3 C 1,1 C 59 % 1032,5 hPa 0,0 l/m 2 min 0 min 291 W/m 9,7 km/h (2 Bft) 95,74 %
09.02.2023 14:34 6,1 C 7,8 C 1,1 C 58 % 1032,4 hPa 0,0 l/m 2 min 0 min 305 W/m 16,1 km/h (3 Bft) 100,00 %
09.02.2023 14:36 6,1 C 7,8 C 1,1 C 58 % 1032,4 hPa 0,0 l/m 2 min 0 min 270 W/m 12,9 km/h (3 Bft) 97,87 %
09.02.2023 14:38 6,1 C 7,8 C 1,1 C 58 % 1032,4 hPa 0,0 l/m 2 min 0 min 284 W/m 9,7 km/h (2 Bft) 100,00 %
09.02.2023 14:40 6,1 C 7,8 C 1,1 C 58 % 1032,4 hPa 0,0 l/m 2 min 0 min 270 W/m 12,9 km/h (3 Bft) 100,00 %
09.02.2023 14:42 6,2 C 7,8 C 1,1 C 58 % 1032,5 hPa 0,0 l/m 2 min 0 min 280 W/m 9,7 km/h (2 Bft) 97,87 %
09.02.2023 14:44 6,2 C 8,3 C 1,1 C 58 % 1032,5 hPa 0,0 l/m 2 min 0 min 313 W/m 9,7 km/h (2 Bft) 100,00 %
09.02.2023 14:46 6,3 C 8,3 C 1,1 C 58 % 1032,5 hPa 0,0 l/m 2 min 0 min 317 W/m 12,9 km/h (3 Bft) 100,00 %
09.02.2023 14:48 6,3 C 8,3 C 1,1 C 57 % 1032,5 hPa 0,0 l/m 2 min 0 min 309 W/m 19,3 km/h (3 Bft) 100,00 %
09.02.2023 14:50 6,4 C 7,8 C 1,7 C 57 % 1032,4 hPa 0,0 l/m 2 min 0 min 303 W/m 12,9 km/h (3 Bft) 97,87 %
09.02.2023 14:52 6,4 C 8,3 C 1,7 C 57 % 1032,4 hPa 0,0 l/m 2 min 0 min 272 W/m 12,9 km/h (3 Bft) 95,74 %
09.02.2023 14:54 6,5 C 8,3 C 1,7 C 57 % 1032,5 hPa 0,0 l/m 2 min 0 min 300 W/m 12,9 km/h (3 Bft) 97,87 %
09.02.2023 14:56 6,5 C 8,3 C 1,7 C 57 % 1032,5 hPa 0,0 l/m 2 min 0 min 291 W/m 16,1 km/h (3 Bft) 100,00 %
09.02.2023 14:58 6,6 C 8,3 C 1,7 C 56 % 1032,6 hPa 0,0 l/m 2 min 0 min 284 W/m 16,1 km/h (3 Bft) 100,00 %
09.02.2023 15:00 6,5 C 7,8 C 1,7 C 55 % 1032,6 hPa 0,0 l/m 2 min 0 min 258 W/m 19,3 km/h (3 Bft) 97,83 %
09.02.2023 15:02 6,4 C 7,2 C 1,7 C 55 % 1032,6 hPa 0,0 l/m 2 min 0 min 249 W/m 19,3 km/h (3 Bft) 100,00 %
09.02.2023 15:04 6,4 C 7,8 C 1,7 C 56 % 1032,6 hPa 0,0 l/m 2 min 0 min 222 W/m 12,9 km/h (3 Bft) 97,92 %
09.02.2023 15:06 6,4 C 7,2 C 1,7 C 56 % 1032,6 hPa 0,0 l/m 2 min 0 min 203 W/m 19,3 km/h (3 Bft) 95,74 %
09.02.2023 15:08 6,4 C 7,2 C 1,7 C 56 % 1032,6 hPa 0,0 l/m 2 min 0 min 213 W/m 6,4 km/h (2 Bft) 97,87 %
09.02.2023 15:10 6,4 C 7,2 C 1,7 C 57 % 1032,6 hPa 0,0 l/m 2 min 0 min 212 W/m 6,4 km/h (2 Bft) 95,74 %
09.02.2023 15:12 6,4 C 7,2 C 1,7 C 57 % 1032,5 hPa 0,0 l/m 2 min 0 min 196 W/m 9,7 km/h (2 Bft) 97,83 %
09.02.2023 15:14 6,3 C 7,2 C 1,7 C 57 % 1032,5 hPa 0,0 l/m 2 min 0 min 179 W/m 6,4 km/h (2 Bft) 95,74 %
09.02.2023 15:16 6,3 C 6,7 C 1,1 C 57 % 1032,5 hPa 0,0 l/m 2 min 0 min 175 W/m 16,1 km/h (3 Bft) 95,74 %
09.02.2023 15:18 6,3 C 6,7 C 1,1 C 57 % 1032,6 hPa 0,0 l/m 2 min 0 min 177 W/m 6,4 km/h (2 Bft) 97,87 %
09.02.2023 15:20 6,2 C 6,7 C 1,1 C 57 % 1032,5 hPa 0,0 l/m 2 min 0 min 186 W/m 12,9 km/h (3 Bft) 95,74 %
09.02.2023 15:22 6,2 C 6,7 C 1,1 C 57 % 1032,6 hPa 0,0 l/m 2 min 0 min 189 W/m 16,1 km/h (3 Bft) 91,49 %
09.02.2023 15:24 6,1 C 6,7 C 1,1 C 58 % 1032,5 hPa 0,0 l/m 2 min 0 min 176 W/m 9,7 km/h (2 Bft) 95,74 %
09.02.2023 15:26 6,1 C 6,1 C 1,1 C 57 % 1032,5 hPa 0,0 l/m 2 min 0 min 166 W/m 12,9 km/h (3 Bft) 95,65 %
09.02.2023 15:28 6,1 C 6,7 C 1,1 C 58 % 1032,6 hPa 0,0 l/m 2 min 0 min 153 W/m 9,7 km/h (2 Bft) 93,62 %
09.02.2023 15:30 6,1 C 6,1 C 1,1 C 58 % 1032,6 hPa 0,0 l/m 2 min 0 min 143 W/m 12,9 km/h (3 Bft) 97,87 %
09.02.2023 15:32 6,1 C 6,1 C 1,1 C 59 % 1032,6 hPa 0,0 l/m 2 min 0 min 139 W/m 6,4 km/h (2 Bft) 95,74 %
09.02.2023 15:34 6,0 C 6,1 C 1,1 C 59 % 1032,6 hPa 0,0 l/m 2 min 0 min 135 W/m 6,4 km/h (2 Bft) 95,74 %
09.02.2023 15:36 5,9 C 6,1 C 1,1 C 59 % 1032,7 hPa 0,0 l/m 2 min 0 min 132 W/m 6,4 km/h (2 Bft) 93,62 %
09.02.2023 15:38 5,9 C 6,1 C 1,1 C 59 % 1032,7 hPa 0,0 l/m 2 min 0 min 128 W/m 6,4 km/h (2 Bft) 95,65 %
09.02.2023 15:40 5,9 C 6,1 C 1,1 C 60 % 1032,6 hPa 0,0 l/m 2 min 0 min 125 W/m 3,2 km/h (1 Bft) 95,74 %
09.02.2023 15:42 5,9 C 6,1 C 1,1 C 60 % 1032,7 hPa 0,0 l/m 2 min 0 min 123 W/m 6,4 km/h (2 Bft) 93,62 %
09.02.2023 15:44 5,9 C 6,1 C 1,1 C 60 % 1032,6 hPa 0,0 l/m 0 min 0 min 120 W/m 9,7 km/h (2 Bft) 95,74 %
09.02.2023 15:46 5,9 C 6,1 C 1,1 C 60 % 1032,6 hPa 0,0 l/m 2 min 0 min 122 W/m 3,2 km/h (1 Bft) 95,74 %
09.02.2023 15:48 5,8 C 6,1 C 1,1 C 60 % 1032,6 hPa 0,0 l/m 2 min 0 min 125 W/m 12,9 km/h (3 Bft) 95,74 %
09.02.2023 15:50 5,8 C 6,1 C 1,1 C 60 % 1032,6 hPa 0,0 l/m 2 min 0 min 125 W/m 6,4 km/h (2 Bft) 95,74 %
09.02.2023 15:52 5,8 C 5,6 C 1,1 C 60 % 1032,6 hPa 0,0 l/m 2 min 0 min 121 W/m 6,4 km/h (2 Bft) 95,65 %
09.02.2023 15:54 5,8 C 5,6 C 1,1 C 60 % 1032,7 hPa 0,0 l/m 2 min 0 min 118 W/m 3,2 km/h (1 Bft) 93,88 %
09.02.2023 15:56 5,8 C 5,6 C 0,6 C 61 % 1032,7 hPa 0,0 l/m 2 min 0 min 112 W/m 9,7 km/h (2 Bft) 95,74 %
09.02.2023 15:58 5,7 C 5,6 C 0,6 C 61 % 1032,7 hPa 0,0 l/m 2 min 0 min 112 W/m 6,4 km/h (2 Bft) 95,65 %
09.02.2023 16:00 5,7 C 5,6 C 0,6 C 61 % 1032,6 hPa 0,0 l/m 2 min 0 min 111 W/m 9,7 km/h (2 Bft) 97,87 %
09.02.2023 16:02 5,7 C 5,6 C 0,6 C 60 % 1032,6 hPa 0,0 l/m 2 min 0 min 105 W/m 6,4 km/h (2 Bft) 97,87 %
09.02.2023 16:04 5,7 C 5,6 C 0,6 C 60 % 1032,7 hPa 0,0 l/m 2 min 0 min 101 W/m 6,4 km/h (2 Bft) 100,00 %
09.02.2023 16:06 5,7 C 5,6 C 0,6 C 61 % 1032,7 hPa 0,0 l/m 0 min 0 min 98 W/m 3,2 km/h (1 Bft) 100,00 %
09.02.2023 16:08 5,7 C 5,6 C 0,6 C 62 % 1032,7 hPa 0,0 l/m 0 min 0 min 94 W/m 3,2 km/h (1 Bft) 100,00 %
09.02.2023 16:10 5,6 C 5,6 C 0,6 C 62 % 1032,7 hPa 0,0 l/m 0 min 0 min 92 W/m 3,2 km/h (1 Bft) 100,00 %
09.02.2023 16:12 5,6 C 5,6 C 0,6 C 62 % 1032,7 hPa 0,0 l/m 0 min 0 min 90 W/m 0,0 km/h (0 Bft) 100,00 %
09.02.2023 16:14 5,6 C 5,0 C 0,6 C 62 % 1032,7 hPa 0,0 l/m 0 min 0 min 88 W/m 3,2 km/h (1 Bft) 95,65 %
09.02.2023 16:16 5,6 C 5,0 C 0,6 C 62 % 1032,8 hPa 0,0 l/m 0 min 0 min 85 W/m 3,2 km/h (1 Bft) 97,87 %
09.02.2023 16:18 5,6 C 5,0 C 0,6 C 62 % 1032,8 hPa 0,0 l/m 0 min 0 min 82 W/m 6,4 km/h (2 Bft) 97,87 %
09.02.2023 16:20 5,5 C 5,0 C 0,6 C 61 % 1032,8 hPa 0,0 l/m 0 min 0 min 78 W/m 6,4 km/h (2 Bft) 97,87 %
09.02.2023 16:22 5,5 C 5,0 C 0,6 C 62 % 1032,8 hPa 0,0 l/m 0 min 0 min 76 W/m 6,4 km/h (2 Bft) 97,87 %
09.02.2023 16:24 5,4 C 5,0 C 0,6 C 62 % 1032,8 hPa 0,0 l/m 0 min 0 min 73 W/m 6,4 km/h (2 Bft) 95,74 %
09.02.2023 16:26 5,4 C 5,0 C 0,6 C 62 % 1032,8 hPa 0,0 l/m 0 min 0 min 70 W/m 3,2 km/h (1 Bft) 97,83 %
09.02.2023 16:28 5,3 C 5,0 C 0,6 C 62 % 1032,8 hPa 0,0 l/m 0 min 0 min 69 W/m 6,4 km/h (2 Bft) 93,62 %
09.02.2023 16:30 5,3 C 5,0 C 0,6 C 62 % 1032,9 hPa 0,0 l/m 0 min 0 min 66 W/m 6,4 km/h (2 Bft) 95,74 %
09.02.2023 16:32 5,3 C 5,0 C 0,6 C 62 % 1032,9 hPa 0,0 l/m 0 min 0 min 63 W/m 6,4 km/h (2 Bft) 97,87 %
09.02.2023 16:34 5,3 C 5,0 C 0,6 C 62 % 1032,9 hPa 0,0 l/m 0 min 0 min 62 W/m 3,2 km/h (1 Bft) 97,87 %
09.02.2023 16:36 5,2 C 5,0 C 0,6 C 62 % 1032,8 hPa 0,0 l/m 0 min 0 min 59 W/m 9,7 km/h (2 Bft) 97,87 %
09.02.2023 16:38 5,2 C 4,4 C 0,6 C 63 % 1032,9 hPa 0,0 l/m 0 min 0 min 56 W/m 9,7 km/h (2 Bft) 97,83 %
09.02.2023 16:40 5,2 C 4,4 C 0,0 C 63 % 1032,9 hPa 0,0 l/m 0 min 0 min 54 W/m 6,4 km/h (2 Bft) 97,87 %
09.02.2023 16:42 5,2 C 4,4 C 0,0 C 63 % 1033,0 hPa 0,0 l/m 0 min 0 min 52 W/m 6,4 km/h (2 Bft) 97,87 %
09.02.2023 16:44 5,1 C 4,4 C 0,0 C 63 % 1032,9 hPa 0,0 l/m 0 min 0 min 49 W/m 9,7 km/h (2 Bft) 97,87 %
09.02.2023 16:46 5,1 C 4,4 C 0,0 C 63 % 1033,0 hPa 0,0 l/m 0 min 0 min 47 W/m 3,2 km/h (1 Bft) 93,62 %
09.02.2023 16:48 5,1 C 4,4 C 0,0 C 63 % 1033,1 hPa 0,0 l/m 0 min 0 min 46 W/m 3,2 km/h (1 Bft) 97,87 %
09.02.2023 16:50 5,1 C 4,4 C 0,0 C 63 % 1033,1 hPa 0,0 l/m 0 min 0 min 44 W/m 3,2 km/h (1 Bft) 95,65 %
09.02.2023 16:52 5,1 C 4,4 C 0,0 C 64 % 1033,1 hPa 0,0 l/m 0 min 0 min 42 W/m 6,4 km/h (2 Bft) 97,87 %
09.02.2023 16:54 5,1 C 4,4 C 0,0 C 64 % 1033,1 hPa 0,0 l/m 0 min 0 min 40 W/m 3,2 km/h (1 Bft) 97,87 %
09.02.2023 16:56 5,0 C 4,4 C 0,0 C 64 % 1033,1 hPa 0,0 l/m 0 min 0 min 39 W/m 6,4 km/h (2 Bft) 97,87 %
09.02.2023 16:58 4,9 C 4,4 C 0,0 C 64 % 1033,2 hPa 0,0 l/m 0 min 0 min 38 W/m 6,4 km/h (2 Bft) 97,87 %
09.02.2023 17:00 4,9 C 3,9 C 0,0 C 64 % 1033,2 hPa 0,0 l/m 0 min 0 min 35 W/m 6,4 km/h (2 Bft) 97,87 %
09.02.2023 17:02 4,9 C 3,9 C 0,0 C 64 % 1033,2 hPa 0,0 l/m 0 min 0 min 35 W/m 3,2 km/h (1 Bft) 95,74 %
09.02.2023 17:04 4,9 C 3,9 C 0,0 C 64 % 1033,2 hPa 0,0 l/m 0 min 0 min 34 W/m 3,2 km/h (1 Bft) 97,83 %
09.02.2023 17:06 4,8 C 3,9 C 0,0 C 65 % 1033,2 hPa 0,0 l/m 2 min 0 min 33 W/m 6,4 km/h (2 Bft) 100,00 %
09.02.2023 17:08 4,8 C 3,9 C -0,6 C 65 % 1033,2 hPa 0,0 l/m 2 min 0 min 32 W/m 3,2 km/h (1 Bft) 100,00 %
09.02.2023 17:10 4,8 C 3,9 C -0,6 C 65 % 1033,3 hPa 0,0 l/m 2 min 0 min 30 W/m 6,4 km/h (2 Bft) 97,87 %
09.02.2023 17:12 4,7 C 3,9 C -0,6 C 65 % 1033,3 hPa 0,0 l/m 2 min 0 min 30 W/m 6,4 km/h (2 Bft) 97,87 %
09.02.2023 17:14 4,7 C 3,9 C -0,6 C 66 % 1033,3 hPa 0,0 l/m 2 min 0 min 29 W/m 3,2 km/h (1 Bft) 100,00 %
09.02.2023 17:16 4,6 C 3,9 C -0,6 C 66 % 1033,4 hPa 0,0 l/m 2 min 0 min 27 W/m 3,2 km/h (1 Bft) 97,87 %
09.02.2023 17:18 4,6 C 3,9 C -0,6 C 66 % 1033,4 hPa 0,0 l/m 2 min 0 min 26 W/m 3,2 km/h (1 Bft) 100,00 %
09.02.2023 17:20 4,6 C 3,3 C -0,6 C 66 % 1033,4 hPa 0,0 l/m 2 min 0 min 24 W/m 6,4 km/h (2 Bft) 100,00 %
09.02.2023 17:22 4,4 C 3,3 C -0,6 C 67 % 1033,5 hPa 0,0 l/m 2 min 0 min 20 W/m 6,4 km/h (2 Bft) 100,00 %
09.02.2023 17:24 4,4 C 3,3 C -0,6 C 67 % 1033,5 hPa 0,0 l/m 0 min 0 min 19 W/m 3,2 km/h (1 Bft) 95,74 %
09.02.2023 17:26 4,3 C 3,3 C -0,6 C 67 % 1033,5 hPa 0,0 l/m 0 min 0 min 17 W/m 3,2 km/h (1 Bft) 93,62 %
09.02.2023 17:28 4,3 C 3,3 C -1,1 C 67 % 1033,6 hPa 0,0 l/m 0 min 0 min 15 W/m 6,4 km/h (2 Bft) 95,74 %
09.02.2023 17:30 4,3 C 3,3 C -1,1 C 67 % 1033,5 hPa 0,0 l/m 0 min 0 min 12 W/m 0,0 km/h (0 Bft) 97,83 %
09.02.2023 17:32 4,2 C 3,3 C -1,1 C 67 % 1033,6 hPa 0,0 l/m 0 min 0 min 11 W/m 0,0 km/h (0 Bft) 95,74 %
09.02.2023 17:34 4,2 C 2,8 C -1,7 C 68 % 1033,6 hPa 0,0 l/m 0 min 0 min 9 W/m 0,0 km/h (0 Bft) 97,87 %
09.02.2023 17:36 4,2 C 2,8 C -1,7 C 68 % 1033,7 hPa 0,0 l/m 0 min 0 min 7 W/m 3,2 km/h (1 Bft) 91,49 %
09.02.2023 17:38 4,1 C 2,8 C -1,7 C 68 % 1033,7 hPa 0,0 l/m 0 min 0 min 7 W/m 3,2 km/h (1 Bft) 97,87 %
09.02.2023 17:40 4,1 C 2,8 C -1,7 C 68 % 1033,8 hPa 0,0 l/m 0 min 0 min 5 W/m 3,2 km/h (1 Bft) 97,87 %
09.02.2023 17:42 4,1 C 2,8 C -1,7 C 68 % 1033,9 hPa 0,0 l/m 0 min 0 min 3 W/m 0,0 km/h (0 Bft) 95,74 %
09.02.2023 17:44 4,0 C 2,8 C -1,7 C 68 % 1033,9 hPa 0,0 l/m 0 min 0 min 0 W/m 3,2 km/h (1 Bft) 97,83 %
09.02.2023 17:46 3,9 C 2,8 C -1,7 C 68 % 1033,9 hPa 0,0 l/m 0 min 0 min 0 W/m 3,2 km/h (1 Bft) 91,49 %
09.02.2023 17:48 3,9 C 2,8 C -1,7 C 69 % 1033,8 hPa 0,0 l/m 0 min 0 min 0 W/m 3,2 km/h (1 Bft) 93,62 %
09.02.2023 17:50 3,9 C 2,8 C -1,7 C 69 % 1033,9 hPa 0,0 l/m 0 min 0 min 0 W/m 0,0 km/h (0 Bft) 95,74 %
09.02.2023 17:52 3,9 C 2,8 C -1,7 C 69 % 1033,9 hPa 0,0 l/m 0 min 0 min 0 W/m 3,2 km/h (1 Bft) 95,74 %
09.02.2023 17:54 3,9 C 3,3 C -1,1 C 69 % 1033,9 hPa 0,0 l/m 0 min 0 min 0 W/m 3,2 km/h (1 Bft) 91,49 %
09.02.2023 17:56 3,8 C 3,3 C -1,1 C 69 % 1033,9 hPa 0,0 l/m 0 min 0 min 0 W/m 3,2 km/h (1 Bft) 93,48 %
09.02.2023 17:58 3,8 C 3,3 C -1,1 C 69 % 1033,9 hPa 0,0 l/m 0 min 0 min 0 W/m 9,7 km/h (2 Bft) 97,87 %
09.02.2023 18:00 3,8 C 3,3 C -1,1 C 69 % 1033,8 hPa 0,0 l/m 0 min 0 min 0 W/m 6,4 km/h (2 Bft) 97,87 %
09.02.2023 18:02 3,8 C 3,3 C -1,1 C 69 % 1033,7 hPa 0,0 l/m 0 min 0 min 0 W/m 3,2 km/h (1 Bft) 97,87 %
09.02.2023 18:04 3,8 C 3,3 C -0,6 C 69 % 1033,8 hPa 0,0 l/m 0 min 0 min 0 W/m 6,4 km/h (2 Bft) 97,87 %
09.02.2023 18:07 3,8 C 3,3 C -0,6 C 69 % 1033,8 hPa 0,0 l/m 0 min 0 min 0 W/m 9,7 km/h (2 Bft) 98,61 %
09.02.2023 18:08 3,8 C 3,3 C -0,6 C 69 % 1033,8 hPa 0,0 l/m 0 min 0 min 0 W/m 6,4 km/h (2 Bft) 95,65 %
09.02.2023 18:12 3,8 C 2,8 C -1,1 C 69 % 1033,8 hPa 0,0 l/m 0 min 0 min 0 W/m 3,2 km/h (1 Bft) 98,31 %
09.02.2023 18:14 3,8 C 2,8 C -1,1 C 69 % 1033,8 hPa 0,0 l/m 0 min 0 min 0 W/m 9,7 km/h (2 Bft) 97,87 %
09.02.2023 18:16 3,8 C 2,8 C -1,1 C 69 % 1033,8 hPa 0,0 l/m 0 min 0 min 0 W/m 6,4 km/h (2 Bft) 97,83 %
09.02.2023 18:18 3,8 C 2,8 C -1,1 C 69 % 1033,8 hPa 0,0 l/m 0 min 0 min 0 W/m 9,7 km/h (2 Bft) 97,87 %
09.02.2023 18:20 3,8 C 2,8 C -1,1 C 69 % 1033,8 hPa 0,0 l/m 0 min 0 min 0 W/m 6,4 km/h (2 Bft) 97,87 %
09.02.2023 18:22 3,8 C 2,8 C -1,1 C 69 % 1033,8 hPa 0,0 l/m 0 min 0 min 0 W/m 6,4 km/h (2 Bft) 95,74 %
09.02.2023 18:24 3,7 C 2,8 C -1,1 C 69 % 1033,9 hPa 0,0 l/m 0 min 0 min 0 W/m 9,7 km/h (2 Bft) 97,87 %
09.02.2023 18:26 3,7 C 2,8 C -1,1 C 69 % 1033,9 hPa 0,0 l/m 0 min 0 min 0 W/m 6,4 km/h (2 Bft) 100,00 %
09.02.2023 18:28 3,7 C 2,8 C -1,1 C 69 % 1034,0 hPa 0,0 l/m 0 min 0 min 0 W/m 9,7 km/h (2 Bft) 97,87 %
09.02.2023 18:30 3,7 C 2,8 C -1,1 C 69 % 1034,0 hPa 0,0 l/m 0 min 0 min 0 W/m 6,4 km/h (2 Bft) 100,00 %
09.02.2023 18:32 3,7 C 2,8 C -1,1 C 69 % 1034,1 hPa 0,0 l/m 0 min 0 min 0 W/m 6,4 km/h (2 Bft) 100,00 %
09.02.2023 18:34 3,6 C 2,8 C -1,1 C 70 % 1034,0 hPa 0,0 l/m 0 min 0 min 0 W/m 6,4 km/h (2 Bft) 100,00 %
09.02.2023 18:36 3,6 C 2,8 C -1,1 C 70 % 1034,0 hPa 0,0 l/m 0 min 0 min 0 W/m 6,4 km/h (2 Bft) 97,87 %
09.02.2023 18:38 3,6 C 2,8 C -1,1 C 70 % 1034,0 hPa 0,0 l/m 0 min 0 min 0 W/m 3,2 km/h (1 Bft) 100,00 %
09.02.2023 18:40 3,6 C 2,8 C -1,1 C 70 % 1034,1 hPa 0,0 l/m 0 min 0 min 0 W/m 3,2 km/h (1 Bft) 100,00 %
09.02.2023 18:42 3,6 C 2,8 C -1,1 C 70 % 1034,1 hPa 0,0 l/m 0 min 0 min 0 W/m 3,2 km/h (1 Bft) 100,00 %
09.02.2023 18:44 3,5 C 2,8 C -1,1 C 70 % 1034,2 hPa 0,0 l/m 0 min 0 min 0 W/m 3,2 km/h (1 Bft) 100,00 %
09.02.2023 18:46 3,5 C 2,8 C -1,1 C 70 % 1034,1 hPa 0,0 l/m 0 min 0 min 0 W/m 9,7 km/h (2 Bft) 100,00 %
09.02.2023 18:48 3,5 C 2,8 C -1,1 C 70 % 1034,1 hPa 0,0 l/m 0 min 0 min 0 W/m 9,7 km/h (2 Bft) 100,00 %
09.02.2023 18:50 3,5 C 2,8 C -1,1 C 71 % 1034,2 hPa 0,0 l/m 0 min 0 min 0 W/m 9,7 km/h (2 Bft) 97,87 %
09.02.2023 18:52 3,5 C 2,8 C -1,1 C 71 % 1034,2 hPa 0,0 l/m 0 min 0 min 0 W/m 9,7 km/h (2 Bft) 100,00 %
09.02.2023 18:54 3,5 C 2,8 C -1,1 C 71 % 1034,2 hPa 0,0 l/m 0 min 0 min 0 W/m 9,7 km/h (2 Bft) 97,87 %
09.02.2023 18:56 3,5 C 2,8 C -1,1 C 71 % 1034,2 hPa 0,0 l/m 0 min 0 min 0 W/m 9,7 km/h (2 Bft) 100,00 %
09.02.2023 18:58 3,5 C 2,8 C -1,1 C 71 % 1034,3 hPa 0,0 l/m 0 min 0 min 0 W/m 6,4 km/h (2 Bft) 95,65 %
09.02.2023 19:00 3,5 C 2,8 C -1,1 C 71 % 1034,3 hPa 0,0 l/m 0 min 0 min 0 W/m 6,4 km/h (2 Bft) 100,00 %
09.02.2023 19:02 3,5 C 3,3 C -1,1 C 71 % 1034,3 hPa 0,0 l/m 0 min 0 min 0 W/m 6,4 km/h (2 Bft) 100,00 %
09.02.2023 19:04 3,6 C 3,3 C -1,1 C 71 % 1034,3 hPa 0,0 l/m 0 min 0 min 0 W/m 6,4 km/h (2 Bft) 100,00 %
09.02.2023 19:06 3,6 C 3,3 C -1,1 C 71 % 1034,4 hPa 0,0 l/m 0 min 0 min 0 W/m 6,4 km/h (2 Bft) 98,28 %
09.02.2023 19:08 3,6 C 3,3 C -1,1 C 72 % 1034,5 hPa 0,0 l/m 0 min 0 min 0 W/m 6,4 km/h (2 Bft) 97,22 %
09.02.2023 19:10 3,6 C 3,3 C -1,1 C 72 % 1034,4 hPa 0,0 l/m 0 min 0 min 0 W/m 3,2 km/h (1 Bft) 97,87 %
09.02.2023 19:12 3,6 C 3,3 C -1,1 C 72 % 1034,4 hPa 0,0 l/m 0 min 0 min 0 W/m 3,2 km/h (1 Bft) 97,83 %
09.02.2023 19:14 3,6 C 2,8 C -1,1 C 72 % 1034,4 hPa 0,0 l/m 0 min 0 min 0 W/m 3,2 km/h (1 Bft) 93,62 %
09.02.2023 19:16 3,6 C 2,8 C -1,1 C 72 % 1034,5 hPa 0,0 l/m 0 min 0 min 0 W/m 3,2 km/h (1 Bft) 93,62 %
09.02.2023 19:18 3,6 C 2,8 C -1,1 C 72 % 1034,5 hPa 0,0 l/m 0 min 0 min 0 W/m 3,2 km/h (1 Bft) 97,87 %
09.02.2023 19:20 3,6 C 2,8 C -1,1 C 72 % 1034,5 hPa 0,0 l/m 0 min 0 min 0 W/m 3,2 km/h (1 Bft) 91,49 %
09.02.2023 19:22 3,6 C 2,8 C -1,1 C 72 % 1034,5 hPa 0,0 l/m 0 min 0 min 0 W/m 6,4 km/h (2 Bft) 93,48 %
09.02.2023 19:24 3,6 C 2,8 C -1,1 C 73 % 1034,5 hPa 0,0 l/m 0 min 0 min 0 W/m 9,7 km/h (2 Bft) 97,87 %
09.02.2023 19:26 3,6 C 3,3 C -1,1 C 73 % 1034,5 hPa 0,0 l/m 0 min 0 min 0 W/m 3,2 km/h (1 Bft) 91,49 %
09.02.2023 19:28 3,6 C 3,3 C -1,1 C 73 % 1034,5 hPa 0,0 l/m 0 min 0 min 0 W/m 3,2 km/h (1 Bft) 95,74 %
09.02.2023 19:30 3,6 C 3,3 C -1,1 C 73 % 1034,5 hPa 0,0 l/m 0 min 0 min 0 W/m 6,4 km/h (2 Bft) 95,74 %
09.02.2023 19:32 3,6 C 3,3 C -1,1 C 73 % 1034,5 hPa 0,0 l/m 0 min 0 min 0 W/m 0,0 km/h (0 Bft) 72,34 %
09.02.2023 19:34 3,6 C 3,3 C -1,1 C 73 % 1034,5 hPa 0,0 l/m 0 min 0 min 0 W/m 3,2 km/h (1 Bft) 78,26 %
09.02.2023 19:36 3,6 C 3,3 C -1,1 C 73 % 1034,5 hPa 0,0 l/m 0 min 0 min 0 W/m 6,4 km/h (2 Bft) 95,65 %
09.02.2023 19:38 3,6 C 3,3 C -1,1 C 73 % 1034,5 hPa 0,0 l/m 0 min 0 min 0 W/m 3,2 km/h (1 Bft) 95,74 %
09.02.2023 19:40 3,7 C 3,3 C -1,1 C 73 % 1034,5 hPa 0,0 l/m 0 min 0 min 0 W/m 3,2 km/h (1 Bft) 91,49 %
09.02.2023 19:42 3,7 C 3,3 C -1,1 C 73 % 1034,6 hPa 0,0 l/m 0 min 0 min 0 W/m 3,2 km/h (1 Bft) 91,49 %
09.02.2023 19:44 3,7 C 3,3 C -1,1 C 73 % 1034,6 hPa 0,0 l/m 0 min 0 min 0 W/m 3,2 km/h (1 Bft) 95,74 %
09.02.2023 19:46 3,7 C 3,3 C -0,6 C 74 % 1034,6 hPa 0,0 l/m 0 min 0 min 0 W/m 3,2 km/h (1 Bft) 93,62 %
09.02.2023 19:48 3,7 C 3,3 C -0,6 C 74 % 1034,6 hPa 0,0 l/m 0 min 0 min 0 W/m 6,4 km/h (2 Bft) 97,83 %
09.02.2023 19:50 3,7 C 3,3 C -0,6 C 74 % 1034,7 hPa 0,0 l/m 0 min 0 min 0 W/m 6,4 km/h (2 Bft) 97,87 %
09.02.2023 19:52 3,7 C 3,3 C -0,6 C 74 % 1034,7 hPa 0,0 l/m 0 min 0 min 0 W/m 3,2 km/h (1 Bft) 95,74 %
09.02.2023 19:54 3,7 C 3,3 C -0,6 C 74 % 1034,8 hPa 0,0 l/m 0 min 0 min 0 W/m 3,2 km/h (1 Bft) 95,74 %
09.02.2023 19:56 3,7 C 3,3 C -0,6 C 74 % 1034,8 hPa 0,0 l/m 0 min 0 min 0 W/m 6,4 km/h (2 Bft) 95,74 %
09.02.2023 19:58 3,8 C 3,3 C -0,6 C 75 % 1034,8 hPa 0,0 l/m 0 min 0 min 0 W/m 6,4 km/h (2 Bft) 95,74 %
09.02.2023 20:00 3,8 C 3,3 C -0,6 C 75 % 1034,8 hPa 0,0 l/m 0 min 0 min 0 W/m 3,2 km/h (1 Bft) 93,62 %
09.02.2023 20:02 3,8 C 3,3 C -0,6 C 75 % 1034,8 hPa 0,0 l/m 0 min 0 min 0 W/m 9,7 km/h (2 Bft) 93,48 %
09.02.2023 20:04 3,8 C 3,3 C -0,6 C 75 % 1034,9 hPa 0,0 l/m 0 min 0 min 0 W/m 9,7 km/h (2 Bft) 95,74 %
09.02.2023 20:06 3,8 C 3,3 C -0,6 C 75 % 1034,9 hPa 0,0 l/m 0 min 0 min 0 W/m 6,4 km/h (2 Bft) 94,92 %
09.02.2023 20:08 3,8 C 3,3 C -0,6 C 76 % 1034,9 hPa 0,0 l/m 0 min 0 min 0 W/m 6,4 km/h (2 Bft) 97,14 %
09.02.2023 20:10 3,8 C 3,3 C -0,6 C 76 % 1034,9 hPa 0,0 l/m 0 min 0 min 0 W/m 6,4 km/h (2 Bft) 95,74 %
09.02.2023 20:12 3,8 C 3,3 C -0,6 C 76 % 1034,9 hPa 0,0 l/m 0 min 0 min 0 W/m 6,4 km/h (2 Bft) 91,49 %
09.02.2023 20:14 3,8 C 3,3 C -0,6 C 76 % 1034,9 hPa 0,0 l/m 0 min 0 min 0 W/m 3,2 km/h (1 Bft) 93,48 %
09.02.2023 20:16 3,8 C 3,3 C -0,6 C 76 % 1034,9 hPa 0,0 l/m 0 min 0 min 0 W/m 6,4 km/h (2 Bft) 97,87 %
09.02.2023 20:18 3,8 C 3,3 C -0,6 C 77 % 1034,9 hPa 0,0 l/m 0 min 0 min 0 W/m 9,7 km/h (2 Bft) 97,87 %
09.02.2023 20:20 3,8 C 3,3 C -0,6 C 77 % 1034,9 hPa 0,0 l/m 0 min 0 min 0 W/m 6,4 km/h (2 Bft) 95,74 %
09.02.2023 20:22 3,9 C 3,3 C -0,6 C 77 % 1034,9 hPa 0,0 l/m 0 min 0 min 0 W/m 3,2 km/h (1 Bft) 93,62 %
09.02.2023 20:24 3,9 C 3,3 C -0,6 C 77 % 1035,0 hPa 0,0 l/m 0 min 0 min 0 W/m 6,4 km/h (2 Bft) 95,74 %
09.02.2023 20:26 3,9 C 3,3 C -0,6 C 77 % 1035,0 hPa 0,0 l/m 0 min 0 min 0 W/m 6,4 km/h (2 Bft) 97,87 %
09.02.2023 20:28 3,9 C 3,3 C -0,6 C 77 % 1035,0 hPa 0,0 l/m 0 min 0 min 0 W/m 6,4 km/h (2 Bft) 97,83 %
09.02.2023 20:30 3,9 C 3,3 C -0,6 C 77 % 1035,0 hPa 0,0 l/m 0 min 0 min 0 W/m 6,4 km/h (2 Bft) 97,87 %
09.02.2023 20:32 3,9 C 3,3 C -0,6 C 77 % 1035,0 hPa 0,0 l/m 0 min 0 min 0 W/m 3,2 km/h (1 Bft) 95,74 %
09.02.2023 20:34 3,8 C 3,3 C -0,6 C 77 % 1035,0 hPa 0,0 l/m 0 min 0 min 0 W/m 6,4 km/h (2 Bft) 95,74 %
09.02.2023 20:36 3,9 C 3,3 C -0,6 C 77 % 1035,0 hPa 0,0 l/m 0 min 0 min 0 W/m 6,4 km/h (2 Bft) 95,74 %
09.02.2023 20:38 3,9 C 3,3 C -0,6 C 78 % 1035,0 hPa 0,0 l/m 0 min 0 min 0 W/m 6,4 km/h (2 Bft) 95,74 %
09.02.2023 20:40 3,9 C 3,3 C -0,6 C 78 % 1035,0 hPa 0,0 l/m 0 min 0 min 0 W/m 3,2 km/h (1 Bft) 100,00 %
09.02.2023 20:42 3,9 C 3,3 C -0,6 C 78 % 1035,0 hPa 0,0 l/m 0 min 0 min 0 W/m 6,4 km/h (2 Bft) 100,00 %
09.02.2023 20:44 3,9 C 3,3 C -0,6 C 78 % 1035,0 hPa 0,0 l/m 0 min 0 min 0 W/m 6,4 km/h (2 Bft) 100,00 %
09.02.2023 20:46 3,9 C 3,3 C -0,6 C 78 % 1035,2 hPa 0,0 l/m 0 min 0 min 0 W/m 6,4 km/h (2 Bft) 100,00 %
09.02.2023 20:48 3,9 C 3,3 C -0,6 C 78 % 1035,1 hPa 0,0 l/m 0 min 0 min 0 W/m 3,2 km/h (1 Bft) 100,00 %
09.02.2023 20:50 3,9 C 3,3 C -0,6 C 78 % 1035,1 hPa 0,0 l/m 0 min 0 min 0 W/m 6,4 km/h (2 Bft) 100,00 %
09.02.2023 20:52 3,9 C 3,3 C -0,6 C 78 % 1035,2 hPa 0,0 l/m 0 min 0 min 0 W/m 6,4 km/h (2 Bft) 97,87 %
09.02.2023 20:54 3,9 C 3,3 C -0,6 C 78 % 1035,2 hPa 0,0 l/m 0 min 0 min 0 W/m 6,4 km/h (2 Bft) 100,00 %
09.02.2023 20:56 3,9 C 3,3 C -0,6 C 78 % 1035,3 hPa 0,0 l/m 0 min 0 min 0 W/m 3,2 km/h (1 Bft) 100,00 %
09.02.2023 20:58 3,9 C 3,3 C -0,6 C 78 % 1035,2 hPa 0,0 l/m 0 min 0 min 0 W/m 9,7 km/h (2 Bft) 100,00 %
09.02.2023 21:00 3,9 C 3,3 C -0,6 C 78 % 1035,3 hPa 0,0 l/m 0 min 0 min 0 W/m 6,4 km/h (2 Bft) 100,00 %
09.02.2023 21:02 3,9 C 3,3 C -0,6 C 78 % 1035,3 hPa 0,0 l/m 0 min 0 min 0 W/m 6,4 km/h (2 Bft) 95,74 %
09.02.2023 21:04 3,9 C 3,3 C -0,6 C 78 % 1035,3 hPa 0,0 l/m 0 min 0 min 0 W/m 6,4 km/h (2 Bft) 97,87 %
09.02.2023 21:06 3,9 C 3,3 C -0,6 C 78 % 1035,3 hPa 0,0 l/m 0 min 0 min 0 W/m 6,4 km/h (2 Bft) 95,74 %
09.02.2023 21:08 3,9 C 3,3 C -0,6 C 78 % 1035,4 hPa 0,0 l/m 0 min 0 min 0 W/m 3,2 km/h (1 Bft) 97,83 %
09.02.2023 21:10 4,0 C 3,3 C -0,6 C 78 % 1035,3 hPa 0,0 l/m 0 min 0 min 0 W/m 6,4 km/h (2 Bft) 97,87 %
09.02.2023 21:12 4,0 C 3,3 C -0,6 C 79 % 1035,4 hPa 0,0 l/m 0 min 0 min 0 W/m 12,9 km/h (3 Bft) 95,74 %
09.02.2023 21:14 4,0 C 3,3 C -0,6 C 79 % 1035,4 hPa 0,0 l/m 0 min 0 min 0 W/m 6,4 km/h (2 Bft) 95,74 %
09.02.2023 21:16 4,0 C 3,3 C -0,6 C 79 % 1035,4 hPa 0,0 l/m 0 min 0 min 0 W/m 6,4 km/h (2 Bft) 97,87 %
09.02.2023 21:18 4,0 C 3,3 C -0,6 C 79 % 1035,4 hPa 0,0 l/m 0 min 0 min 0 W/m 6,4 km/h (2 Bft) 95,74 %
09.02.2023 21:20 4,0 C 3,3 C -0,6 C 79 % 1035,4 hPa 0,0 l/m 0 min 0 min 0 W/m 9,7 km/h (2 Bft) 97,83 %
09.02.2023 21:22 4,0 C 3,3 C -0,6 C 79 % 1035,3 hPa 0,0 l/m 0 min 0 min 0 W/m 6,4 km/h (2 Bft) 97,87 %
09.02.2023 21:24 4,0 C 3,3 C -0,6 C 79 % 1035,3 hPa 0,0 l/m 0 min 0 min 0 W/m 6,4 km/h (2 Bft) 97,87 %
09.02.2023 21:26 4,0 C 3,3 C -0,6 C 79 % 1035,3 hPa 0,0 l/m 0 min 0 min 0 W/m 12,9 km/h (3 Bft) 95,74 %
09.02.2023 21:28 4,1 C 3,3 C -0,6 C 79 % 1035,4 hPa 0,0 l/m 0 min 0 min 0 W/m 9,7 km/h (2 Bft) 97,87 %
09.02.2023 21:30 4,0 C 3,3 C -0,6 C 79 % 1035,4 hPa 0,0 l/m 0 min 0 min 0 W/m 3,2 km/h (1 Bft) 97,87 %
09.02.2023 21:32 4,1 C 3,3 C -0,6 C 79 % 1035,5 hPa 0,0 l/m 0 min 0 min 0 W/m 12,9 km/h (3 Bft) 95,65 %
09.02.2023 21:34 4,1 C 3,3 C -0,6 C 79 % 1035,5 hPa 0,0 l/m 0 min 0 min 0 W/m 6,4 km/h (2 Bft) 97,87 %
09.02.2023 21:36 4,1 C 3,3 C -0,6 C 79 % 1035,5 hPa 0,0 l/m 0 min 0 min 0 W/m 6,4 km/h (2 Bft) 100,00 %
09.02.2023 21:38 4,1 C 3,3 C -0,6 C 79 % 1035,6 hPa 0,0 l/m 0 min 0 min 0 W/m 6,4 km/h (2 Bft) 97,87 %
09.02.2023 21:40 4,1 C 3,3 C -0,6 C 79 % 1035,6 hPa 0,0 l/m 0 min 0 min 0 W/m 6,4 km/h (2 Bft) 100,00 %
09.02.2023 21:42 4,1 C 3,3 C -0,6 C 79 % 1035,6 hPa 0,0 l/m 0 min 0 min 0 W/m 6,4 km/h (2 Bft) 97,87 %
09.02.2023 21:44 4,1 C 3,3 C -0,6 C 79 % 1035,6 hPa 0,0 l/m 0 min 0 min 0 W/m 3,2 km/h (1 Bft) 100,00 %
09.02.2023 21:46 4,1 C 3,3 C -0,6 C 79 % 1035,5 hPa 0,0 l/m 0 min 0 min 0 W/m 6,4 km/h (2 Bft) 100,00 %
09.02.2023 21:48 4,1 C 3,3 C -0,6 C 79 % 1035,6 hPa 0,0 l/m 0 min 0 min 0 W/m 3,2 km/h (1 Bft) 100,00 %
09.02.2023 21:50 4,1 C 3,3 C -0,6 C 79 % 1035,6 hPa 0,0 l/m 0 min 0 min 0 W/m 3,2 km/h (1 Bft) 100,00 %
09.02.2023 21:52 4,1 C 3,3 C -0,6 C 79 % 1035,6 hPa 0,0 l/m 0 min 0 min 0 W/m 6,4 km/h (2 Bft) 100,00 %
09.02.2023 21:54 4,1 C 3,3 C -0,6 C 79 % 1035,5 hPa 0,0 l/m 0 min 0 min 0 W/m 3,2 km/h (1 Bft) 97,87 %
09.02.2023 21:56 4,1 C 3,3 C -0,6 C 79 % 1035,6 hPa 0,0 l/m 0 min 0 min 0 W/m 6,4 km/h (2 Bft) 100,00 %
09.02.2023 21:58 4,1 C 3,3 C -0,6 C 80 % 1035,6 hPa 0,0 l/m 0 min 0 min 0 W/m 6,4 km/h (2 Bft) 97,87 %
09.02.2023 22:00 4,1 C 3,3 C -0,6 C 80 % 1035,6 hPa 0,0 l/m 0 min 0 min 0 W/m 9,7 km/h (2 Bft) 100,00 %
09.02.2023 22:02 4,0 C 3,3 C -0,6 C 80 % 1035,7 hPa 0,0 l/m 0 min 0 min 0 W/m 6,4 km/h (2 Bft) 100,00 %
09.02.2023 22:04 4,0 C 3,3 C -0,6 C 80 % 1035,6 hPa 0,0 l/m 0 min 0 min 0 W/m 3,2 km/h (1 Bft) 97,87 %
09.02.2023 22:06 4,0 C 3,3 C -0,6 C 80 % 1035,6 hPa 0,0 l/m 0 min 0 min 0 W/m 6,4 km/h (2 Bft) 97,87 %
09.02.2023 22:08 4,0 C 3,3 C -0,6 C 80 % 1035,6 hPa 0,0 l/m 0 min 0 min 0 W/m 6,4 km/h (2 Bft) 95,74 %
09.02.2023 22:10 4,0 C 3,3 C -0,6 C 81 % 1035,6 hPa 0,0 l/m 0 min 0 min 0 W/m 9,7 km/h (2 Bft) 100,00 %
09.02.2023 22:12 4,0 C 3,3 C -0,6 C 81 % 1035,5 hPa 0,0 l/m 0 min 0 min 0 W/m 6,4 km/h (2 Bft) 95,65 %
09.02.2023 22:14 4,0 C 3,3 C -0,6 C 81 % 1035,5 hPa 0,0 l/m 0 min 0 min 0 W/m 6,4 km/h (2 Bft) 93,62 %
09.02.2023 22:16 4,0 C 3,3 C -0,6 C 81 % 1035,5 hPa 0,0 l/m 0 min 0 min 0 W/m 3,2 km/h (1 Bft) 100,00 %
09.02.2023 22:18 4,0 C 3,3 C -0,6 C 81 % 1035,6 hPa 0,0 l/m 0 min 0 min 0 W/m 6,4 km/h (2 Bft) 100,00 %
09.02.2023 22:20 4,0 C 3,3 C -0,6 C 81 % 1035,6 hPa 0,0 l/m 0 min 0 min 0 W/m 3,2 km/h (1 Bft) 97,87 %
09.02.2023 22:22 4,0 C 3,3 C -0,6 C 81 % 1035,5 hPa 0,0 l/m 0 min 0 min 0 W/m 3,2 km/h (1 Bft) 95,74 %
09.02.2023 22:24 4,0 C 3,3 C -0,6 C 81 % 1035,5 hPa 0,0 l/m 0 min 0 min 0 W/m 3,2 km/h (1 Bft) 95,65 %
09.02.2023 22:26 4,0 C 3,3 C -0,6 C 81 % 1035,6 hPa 0,0 l/m 0 min 0 min 0 W/m 3,2 km/h (1 Bft) 91,49 %
09.02.2023 22:28 4,0 C 3,3 C -0,6 C 81 % 1035,5 hPa 0,0 l/m 0 min 0 min 0 W/m 3,2 km/h (1 Bft) 97,87 %
09.02.2023 22:30 3,9 C 3,3 C -0,6 C 81 % 1035,6 hPa 0,0 l/m 0 min 0 min 0 W/m 3,2 km/h (1 Bft) 93,62 %
09.02.2023 22:32 3,9 C 3,3 C -0,6 C 81 % 1035,5 hPa 0,0 l/m 0 min 0 min 0 W/m 3,2 km/h (1 Bft) 93,62 %
09.02.2023 22:34 3,9 C 2,8 C -1,1 C 81 % 1035,5 hPa 0,0 l/m 0 min 0 min 0 W/m 3,2 km/h (1 Bft) 95,74 %
09.02.2023 22:36 3,9 C 2,8 C -1,1 C 82 % 1035,5 hPa 0,0 l/m 0 min 0 min 0 W/m 6,4 km/h (2 Bft) 93,62 %
09.02.2023 22:38 3,9 C 2,8 C -1,1 C 82 % 1035,6 hPa 0,0 l/m 0 min 0 min 0 W/m 3,2 km/h (1 Bft) 93,48 %
09.02.2023 22:40 3,8 C 2,8 C -1,1 C 82 % 1035,6 hPa 0,0 l/m 0 min 0 min 0 W/m 9,7 km/h (2 Bft) 97,87 %
09.02.2023 22:42 3,8 C 2,8 C -1,1 C 82 % 1035,6 hPa 0,0 l/m 0 min 0 min 0 W/m 3,2 km/h (1 Bft) 91,49 %
09.02.2023 22:44 3,8 C 2,8 C -1,1 C 82 % 1035,6 hPa 0,0 l/m 0 min 0 min 0 W/m 6,4 km/h (2 Bft) 91,49 %
09.02.2023 22:46 3,7 C 2,8 C -1,1 C 82 % 1035,5 hPa 0,0 l/m 0 min 0 min 0 W/m 3,2 km/h (1 Bft) 93,62 %
09.02.2023 22:48 3,7 C 2,8 C -1,1 C 82 % 1035,5 hPa 0,0 l/m 0 min 0 min 0 W/m 3,2 km/h (1 Bft) 93,62 %
09.02.2023 22:50 3,7 C 2,8 C -1,1 C 82 % 1035,6 hPa 0,0 l/m 0 min 0 min 0 W/m 3,2 km/h (1 Bft) 93,62 %
09.02.2023 22:52 3,7 C 2,8 C -1,1 C 83 % 1035,6 hPa 0,0 l/m 0 min 0 min 0 W/m 3,2 km/h (1 Bft) 95,65 %
09.02.2023 22:54 3,6 C 2,8 C -1,1 C 83 % 1035,6 hPa 0,0 l/m 0 min 0 min 0 W/m 6,4 km/h (2 Bft) 93,62 %
09.02.2023 22:56 3,6 C 2,8 C -1,1 C 83 % 1035,6 hPa 0,0 l/m 0 min 0 min 0 W/m 9,7 km/h (2 Bft) 93,62 %
09.02.2023 22:58 3,6 C 2,8 C -1,1 C 83 % 1035,5 hPa 0,0 l/m 0 min 0 min 0 W/m 6,4 km/h (2 Bft) 93,62 %
09.02.2023 23:00 3,5 C 2,2 C -1,1 C 83 % 1035,5 hPa 0,0 l/m 0 min 0 min 0 W/m 6,4 km/h (2 Bft) 91,49 %
09.02.2023 23:02 3,5 C 2,2 C -1,1 C 83 % 1035,5 hPa 0,0 l/m 0 min 0 min 0 W/m 6,4 km/h (2 Bft) 90,70 %
09.02.2023 23:04 3,4 C 2,2 C -1,1 C 83 % 1035,6 hPa 0,0 l/m 0 min 0 min 0 W/m 9,7 km/h (2 Bft) 95,74 %
09.02.2023 23:06 3,4 C 2,2 C -1,1 C 83 % 1035,5 hPa 0,0 l/m 0 min 0 min 0 W/m 6,4 km/h (2 Bft) 95,00 %
09.02.2023 23:08 3,4 C 2,2 C -1,1 C 84 % 1035,6 hPa 0,0 l/m 0 min 0 min 0 W/m 3,2 km/h (1 Bft) 94,29 %
09.02.2023 23:10 3,3 C 2,2 C -1,1 C 84 % 1035,6 hPa 0,0 l/m 0 min 0 min 0 W/m 6,4 km/h (2 Bft) 95,74 %
09.02.2023 23:12 3,3 C 2,2 C -1,7 C 84 % 1035,6 hPa 0,0 l/m 0 min 0 min 0 W/m 9,7 km/h (2 Bft) 89,13 %
09.02.2023 23:14 3,3 C 2,2 C -1,7 C 84 % 1035,6 hPa 0,0 l/m 0 min 0 min 0 W/m 9,7 km/h (2 Bft) 91,49 %
09.02.2023 23:16 3,3 C 2,2 C -1,7 C 84 % 1035,7 hPa 0,0 l/m 0 min 0 min 0 W/m 9,7 km/h (2 Bft) 91,49 %
09.02.2023 23:18 3,2 C 2,2 C -1,7 C 84 % 1035,6 hPa 0,0 l/m 0 min 0 min 0 W/m 9,7 km/h (2 Bft) 97,87 %
09.02.2023 23:20 3,2 C 2,2 C -1,7 C 84 % 1035,6 hPa 0,0 l/m 0 min 0 min 0 W/m 6,4 km/h (2 Bft) 97,87 %
09.02.2023 23:22 3,2 C 2,2 C -1,7 C 84 % 1035,6 hPa 0,0 l/m 0 min 0 min 0 W/m 6,4 km/h (2 Bft) 95,74 %
09.02.2023 23:24 3,1 C 2,2 C -1,7 C 85 % 1035,6 hPa 0,0 l/m 0 min 0 min 0 W/m 3,2 km/h (1 Bft) 95,74 %
09.02.2023 23:26 3,1 C 2,2 C -1,7 C 85 % 1035,6 hPa 0,0 l/m 0 min 0 min 0 W/m 3,2 km/h (1 Bft) 97,83 %
09.02.2023 23:28 3,1 C 2,2 C -1,7 C 85 % 1035,6 hPa 0,0 l/m 0 min 0 min 0 W/m 3,2 km/h (1 Bft) 97,87 %
09.02.2023 23:30 3,1 C 2,2 C -1,7 C 85 % 1035,5 hPa 0,0 l/m 0 min 0 min 0 W/m 6,4 km/h (2 Bft) 95,74 %
09.02.2023 23:32 3,0 C 2,2 C -1,7 C 85 % 1035,5 hPa 0,0 l/m 0 min 0 min 0 W/m 3,2 km/h (1 Bft) 100,00 %
09.02.2023 23:34 3,0 C 1,7 C -1,7 C 85 % 1035,6 hPa 0,0 l/m 0 min 0 min 0 W/m 3,2 km/h (1 Bft) 100,00 %
09.02.2023 23:36 3,0 C 1,7 C -1,7 C 85 % 1035,6 hPa 0,0 l/m 0 min 0 min 0 W/m 3,2 km/h (1 Bft) 97,87 %
09.02.2023 23:38 2,9 C 1,7 C -1,7 C 86 % 1035,6 hPa 0,0 l/m 0 min 0 min 0 W/m 3,2 km/h (1 Bft) 100,00 %
09.02.2023 23:40 2,9 C 2,2 C -1,7 C 85 % 1035,6 hPa 0,0 l/m 0 min 0 min 0 W/m 3,2 km/h (1 Bft) 97,83 %
09.02.2023 23:42 2,9 C 2,2 C -1,7 C 86 % 1035,6 hPa 0,0 l/m 0 min 0 min 0 W/m 3,2 km/h (1 Bft) 100,00 %
09.02.2023 23:44 2,9 C 2,2 C -1,7 C 86 % 1035,7 hPa 0,0 l/m 0 min 0 min 0 W/m 3,2 km/h (1 Bft) 100,00 %
09.02.2023 23:46 2,9 C 2,2 C -1,7 C 86 % 1035,7 hPa 0,0 l/m 0 min 0 min 0 W/m 3,2 km/h (1 Bft) 100,00 %
09.02.2023 23:48 2,9 C 2,2 C -1,7 C 86 % 1035,8 hPa 0,0 l/m 0 min 0 min 0 W/m 0,0 km/h (0 Bft) 100,00 %
09.02.2023 23:50 2,8 C 2,2 C -1,7 C 86 % 1035,8 hPa 0,0 l/m 0 min 0 min 0 W/m 3,2 km/h (1 Bft) 97,87 %
09.02.2023 23:52 2,8 C 1,7 C -1,7 C 86 % 1035,7 hPa 0,0 l/m 0 min 0 min 0 W/m 3,2 km/h (1 Bft) 100,00 %
09.02.2023 23:54 2,8 C 1,7 C -1,7 C 86 % 1035,8 hPa 0,0 l/m 0 min 0 min 0 W/m 3,2 km/h (1 Bft) 95,74 %
09.02.2023 23:56 2,8 C 1,7 C -1,7 C 86 % 1035,8 hPa 0,0 l/m 0 min 0 min 0 W/m 3,2 km/h (1 Bft) 97,87 %
09.02.2023 23:58 2,8 C 1,7 C -1,7 C 86 % 1035,8 hPa 0,0 l/m 0 min 0 min 0 W/m 3,2 km/h (1 Bft) 95,74 %
_ Min-Zeit 08:00 07:46 07:44 15:00 06:58 - - - - 16:12 03:54
Minimum _ -2,4 C -3,3 C -6,7 C 55 % 1032,0 hPa - - - - 0,0 km/h (0 Bft) 51,22 %
_ Max-Zeit 14:58 13:38 14:50 23:38 23:48 00:00 08:18 00:00 13:04 12:38 00:04
Maximum _ 6,6 C 10,0 C 1,7 C 86 % 1035,8 hPa 0,0 l/m 2 min 0 min 376 W/m 25,7 km/h
S (4 Bft)
100,00 %
Durchschnitt _ 1,7 C 1,9 C -2,6 C 73 % 1033,5 hPa #0,0 l/m #7:10 h #0 min. 173 W/m 9,9 km/h (2 Bft) 96,92 %
© 2023 W. Hausmann